Observation data for Hefner on 01/17/2021      Previous  Date  Next       Current Mesonet Observations  Soil Data  Daily Summary Page  Observations in Plain Language
KHE1 170600Z 26007KT 02/M03 A3006 RMK A01 T00241029  RH  068%=      5-min Rain = 0
KHE1 170601Z 26007KT 02/M03 A3006 RMK A01 T00231029  RH  068%=      5-min Rain = 0
KHE1 170602Z 26007KT 02/M03 A3006 RMK A01 T00231029  RH  068%=      5-min Rain = 0
KHE1 170603Z 26007KT 02/M03 A3007 RMK A01 T00231029  RH  069%=      5-min Rain = 0
KHE1 170604Z 27006KT 02/M03 A3007 RMK A01 T00221029  RH  069%=      5-min Rain = 0
KHE1 170605Z 27007KT 02/M03 A3007 RMK A01 T00221028  RH  069%=      5-min Rain = 0
KHE1 170606Z 27007KT 02/M03 A3007 RMK A01 T00221028  RH  069%=      5-min Rain = 0
KHE1 170607Z 27007KT 02/M03 A3007 RMK A01 T00221029  RH  069%=      5-min Rain = 0
KHE1 170608Z 27008KT 02/M03 A3007 RMK A01 T00221029  RH  069%=      5-min Rain = 0
KHE1 170609Z 27008KT 02/M03 A3007 RMK A01 T00221029  RH  069%=      5-min Rain = 0
KHE1 170610Z 27008KT 02/M03 A3007 RMK A01 T00221029  RH  069%=      5-min Rain = 0
KHE1 170611Z 27008KT 02/M03 A3007 RMK A01 T00211029  RH  070%=      5-min Rain = 0
KHE1 170612Z 27008KT 02/M03 A3007 RMK A01 T00201029  RH  070%=      5-min Rain = 0
KHE1 170613Z 27008KT 02/M03 A3007 RMK A01 T00201029  RH  070%=      5-min Rain = 0
KHE1 170614Z 27007KT 02/M03 A3007 RMK A01 T00191028  RH  071%=      5-min Rain = 0
KHE1 170615Z 27007KT 02/M03 A3007 RMK A01 T00191028  RH  071%=      5-min Rain = 0
KHE1 170616Z 27007KT 02/M03 A3007 RMK A01 T00181028  RH  071%=      5-min Rain = 0
KHE1 170617Z 27008KT 02/M03 A3007 RMK A01 T00181028  RH  071%=      5-min Rain = 0
KHE1 170618Z 27008KT 02/M03 A3007 RMK A01 T00181029  RH  071%=      5-min Rain = 0
KHE1 170619Z 27008KT 02/M03 A3007 RMK A01 T00181029  RH  071%=      5-min Rain = 0
KHE1 170620Z 27008KT 02/M03 A3007 RMK A01 T00181029  RH  071%=      5-min Rain = 0
KHE1 170621Z 27008KT 02/M03 A3007 RMK A01 T00181029  RH  071%=      5-min Rain = 0
KHE1 170622Z 27008KT 02/M03 A3007 RMK A01 T00181029  RH  071%=      5-min Rain = 0
KHE1 170623Z 27008KT 02/M03 A3007 RMK A01 T00181029  RH  071%=      5-min Rain = 0
KHE1 170624Z 27008KT 02/M03 A3007 RMK A01 T00171030  RH  071%=      5-min Rain = 0
KHE1 170625Z 27008KT 02/M03 A3007 RMK A01 T00171030  RH  071%=      5-min Rain = 0
KHE1 170626Z 27009KT 02/M03 A3007 RMK A01 T00171030  RH  071%=      5-min Rain = 0
KHE1 170627Z 26008KT 02/M03 A3007 RMK A01 T00171030  RH  071%=      5-min Rain = 0
KHE1 170628Z 27008KT 02/M03 A3007 RMK A01 T00181030  RH  070%=      5-min Rain = 0
KHE1 170629Z 26008KT 02/M03 A3007 RMK A01 T00181030  RH  070%=      5-min Rain = 0
KHE1 170630Z 26008KT 02/M03 A3007 RMK A01 T00181029  RH  071%=      5-min Rain = 0
KHE1 170631Z 26008KT 02/M03 A3007 RMK A01 T00171029  RH  071%=      5-min Rain = 0
KHE1 170632Z 26008KT 02/M03 A3007 RMK A01 T00171029  RH  071%=      5-min Rain = 0
KHE1 170633Z 26008KT 02/M03 A3007 RMK A01 T00171029  RH  071%=      5-min Rain = 0
KHE1 170634Z 26007KT 02/M03 A3007 RMK A01 T00171030  RH  071%=      5-min Rain = 0
KHE1 170635Z 27007KT 02/M03 A3007 RMK A01 T00161030  RH  071%=      5-min Rain = 0
KHE1 170636Z 27008KT 02/M03 A3007 RMK A01 T00161030  RH  071%=      5-min Rain = 0
KHE1 170637Z 27007KT 02/M03 A3007 RMK A01 T00161030  RH  072%=      5-min Rain = 0
KHE1 170638Z 27007KT 02/M03 A3007 RMK A01 T00161030  RH  072%=      5-min Rain = 0
KHE1 170639Z 27007KT 02/M03 A3007 RMK A01 T00171029  RH  071%=      5-min Rain = 0
KHE1 170640Z 27007KT 02/M03 A3007 RMK A01 T00171030  RH  071%=      5-min Rain = 0
KHE1 170641Z 27007KT 02/M03 A3007 RMK A01 T00181030  RH  071%=      5-min Rain = 0
KHE1 170642Z 27007KT 02/M03 A3007 RMK A01 T00181030  RH  071%=      5-min Rain = 0
KHE1 170643Z 27007KT 02/M03 A3007 RMK A01 T00181030  RH  071%=      5-min Rain = 0
KHE1 170644Z 27007KT 02/M03 A3007 RMK A01 T00171030  RH  071%=      5-min Rain = 0
KHE1 170645Z 27007KT 02/M03 A3007 RMK A01 T00171030  RH  071%=      5-min Rain = 0
KHE1 170646Z 28007KT 02/M03 A3007 RMK A01 T00171029  RH  071%=      5-min Rain = 0
KHE1 170647Z 27007KT 02/M03 A3007 RMK A01 T00171030  RH  071%=      5-min Rain = 0
KHE1 170648Z 27007KT 02/M03 A3007 RMK A01 T00181030  RH  071%=      5-min Rain = 0
KHE1 170649Z 28006KT 02/M03 A3008 RMK A01 T00181030  RH  070%=      5-min Rain = 0
KHE1 170650Z 28006KT 02/M03 A3008 RMK A01 T00181030  RH  070%=      5-min Rain = 0
KHE1 170651Z 28007KT 02/M03 A3008 RMK A01 T00181030  RH  070%=      5-min Rain = 0
KHE1 170652Z 28007KT 02/M03 A3008 RMK A01 T00181030  RH  070%=      5-min Rain = 0
KHE1 170653Z 27007KT 02/M03 A3008 RMK A01 T00171031  RH  071%=      5-min Rain = 0
KHE1 170654Z 27008KT 02/M03 A3008 RMK A01 T00161031  RH  071%=      5-min Rain = 0
KHE1 170655Z 27008KT 02/M03 A3007 RMK A01 T00171030  RH  071%=      5-min Rain = 0
KHE1 170656Z 27007KT 02/M03 A3007 RMK A01 T00171030  RH  071%=      5-min Rain = 0
KHE1 170657Z 27007KT 02/M03 A3007 RMK A01 T00161031  RH  071%=      5-min Rain = 0
KHE1 170658Z 27008KT 02/M03 A3007 RMK A01 T00151031  RH  072%=      5-min Rain = 0
KHE1 170659Z 27008KT 02/M03 A3007 RMK A01 T00151031  RH  072%=      5-min Rain = 0
KHE1 170700Z 27008KT 02/M03 A3007 RMK A01 T00151030  RH  072%=      5-min Rain = 0
KHE1 170701Z 28009KT 01/M03 A3007 RMK A01 T00141031  RH  072%=      5-min Rain = 0
KHE1 170702Z 28009KT 01/M03 A3008 RMK A01 T00141031  RH  072%=      5-min Rain = 0
KHE1 170703Z 28009KT 02/M03 A3008 RMK A01 T00151030  RH  072%=      5-min Rain = 0
KHE1 170704Z 27009KT 02/M03 A3008 RMK A01 T00161030  RH  071%=      5-min Rain = 0
KHE1 170705Z 27009KT 02/M03 A3008 RMK A01 T00161030  RH  071%=      5-min Rain = 0
KHE1 170706Z 27008KT 02/M03 A3008 RMK A01 T00171030  RH  071%=      5-min Rain = 0
KHE1 170707Z 27008KT 02/M03 A3008 RMK A01 T00181031  RH  070%=      5-min Rain = 0
KHE1 170708Z 27008KT 02/M03 A3008 RMK A01 T00181031  RH  070%=      5-min Rain = 0
KHE1 170709Z 27008KT 02/M03 A3008 RMK A01 T00181031  RH  070%=      5-min Rain = 0
KHE1 170710Z 27008KT 02/M03 A3008 RMK A01 T00181031  RH  070%=      5-min Rain = 0
KHE1 170711Z 27008KT 02/M03 A3008 RMK A01 T00181031  RH  070%=      5-min Rain = 0
KHE1 170712Z 27008KT 02/M03 A3008 RMK A01 T00171031  RH  070%=      5-min Rain = 0
KHE1 170713Z 28008KT 02/M03 A3008 RMK A01 T00171031  RH  071%=      5-min Rain = 0
KHE1 170714Z 28008KT 02/M03 A3008 RMK A01 T00161031  RH  071%=      5-min Rain = 0
KHE1 170715Z 28008KT 02/M03 A3008 RMK A01 T00171031  RH  071%=      5-min Rain = 0
KHE1 170716Z 28009KT 02/M03 A3008 RMK A01 T00171032  RH  070%=      5-min Rain = 0
KHE1 170717Z 28009KT 02/M03 A3008 RMK A01 T00181032  RH  070%=      5-min Rain = 0
KHE1 170718Z 28009KT 02/M03 A3008 RMK A01 T00181032  RH  069%=      5-min Rain = 0
KHE1 170719Z 28009KT 02/M03 A3008 RMK A01 T00191032  RH  069%=      5-min Rain = 0
KHE1 170720Z 28009KT 02/M03 A3008 RMK A01 T00191032  RH  069%=      5-min Rain = 0
KHE1 170721Z 28009KT 02/M03 A3008 RMK A01 T00191033  RH  068%=      5-min Rain = 0
KHE1 170722Z 28009KT 02/M03 A3008 RMK A01 T00201033  RH  068%=      5-min Rain = 0
KHE1 170723Z 28008KT 02/M03 A3008 RMK A01 T00201033  RH  068%=      5-min Rain = 0
KHE1 170724Z 28009KT 02/M03 A3008 RMK A01 T00201033  RH  068%=      5-min Rain = 0
KHE1 170725Z 28010KT 02/M03 A3008 RMK A01 T00201033  RH  068%=      5-min Rain = 0
KHE1 170726Z 28009KT 02/M03 A3008 RMK A01 T00211034  RH  067%=      5-min Rain = 0
KHE1 170727Z 28009KT 02/M03 A3008 RMK A01 T00221033  RH  067%=      5-min Rain = 0
KHE1 170728Z 28008KT 02/M03 A3008 RMK A01 T00221033  RH  067%=      5-min Rain = 0
KHE1 170729Z 28008KT 02/M03 A3008 RMK A01 T00211033  RH  067%=      5-min Rain = 0
KHE1 170730Z 27009KT 02/M03 A3008 RMK A01 T00211033  RH  067%=      5-min Rain = 0
KHE1 170731Z 28009KT 02/M03 A3008 RMK A01 T00211034  RH  067%=      5-min Rain = 0
KHE1 170732Z 28009KT 02/M03 A3008 RMK A01 T00211033  RH  067%=      5-min Rain = 0
KHE1 170733Z 28009KT 02/M03 A3008 RMK A01 T00211033  RH  068%=      5-min Rain = 0
KHE1 170734Z 28009KT 02/M03 A3008 RMK A01 T00201033  RH  068%=      5-min Rain = 0
KHE1 170735Z 28009KT 02/M03 A3008 RMK A01 T00211034  RH  067%=      5-min Rain = 0
KHE1 170736Z 27009KT 02/M03 A3008 RMK A01 T00211034  RH  067%=      5-min Rain = 0
KHE1 170737Z 28009KT 02/M03 A3008 RMK A01 T00211034  RH  067%=      5-min Rain = 0
KHE1 170738Z 28009KT 02/M03 A3008 RMK A01 T00211034  RH  067%=      5-min Rain = 0
KHE1 170739Z 28009KT 02/M03 A3008 RMK A01 T00211034  RH  067%=      5-min Rain = 0
KHE1 170740Z 27009KT 02/M03 A3008 RMK A01 T00221034  RH  066%=      5-min Rain = 0
KHE1 170741Z 27009KT 02/M03 A3008 RMK A01 T00221034  RH  066%=      5-min Rain = 0
KHE1 170742Z 28009KT 02/M03 A3008 RMK A01 T00221034  RH  066%=      5-min Rain = 0
KHE1 170743Z 28009KT 02/M03 A3008 RMK A01 T00221034  RH  066%=      5-min Rain = 0
KHE1 170744Z 28009KT 02/M04 A3008 RMK A01 T00221035  RH  066%=      5-min Rain = 0
KHE1 170745Z 28008KT 02/M04 A3008 RMK A01 T00231036  RH  065%=      5-min Rain = 0
KHE1 170746Z 28009KT 02/M04 A3008 RMK A01 T00241036  RH  065%=      5-min Rain = 0
KHE1 170747Z 28009KT 02/M04 A3008 RMK A01 T00241036  RH  065%=      5-min Rain = 0
KHE1 170748Z 28009KT 02/M04 A3008 RMK A01 T00241036  RH  064%=      5-min Rain = 0
KHE1 170749Z 27009KT 03/M04 A3008 RMK A01 T00251036  RH  064%=      5-min Rain = 0
KHE1 170750Z 28008KT 03/M04 A3008 RMK A01 T00251037  RH  064%=      5-min Rain = 0
KHE1 170751Z 28009KT 03/M04 A3008 RMK A01 T00251037  RH  063%=      5-min Rain = 0
KHE1 170752Z 27008KT 03/M04 A3008 RMK A01 T00261037  RH  063%=      5-min Rain = 0
KHE1 170753Z 27009KT 03/M04 A3008 RMK A01 T00261037  RH  063%=      5-min Rain = 0
KHE1 170754Z 27009KT 03/M04 A3008 RMK A01 T00261037  RH  063%=      5-min Rain = 0
KHE1 170755Z 27009KT 03/M04 A3008 RMK A01 T00251037  RH  064%=      5-min Rain = 0
KHE1 170756Z 27009KT 02/M04 A3008 RMK A01 T00241037  RH  064%=      5-min Rain = 0
KHE1 170757Z 28009KT 02/M04 A3008 RMK A01 T00231037  RH  065%=      5-min Rain = 0
KHE1 170758Z 28009KT 02/M04 A3008 RMK A01 T00231037  RH  065%=      5-min Rain = 0
KHE1 170759Z 28009KT 02/M04 A3008 RMK A01 T00231037  RH  065%=      5-min Rain = 0
KHE1 170800Z 28009KT 02/M04 A3008 RMK A01 T00241037  RH  064%=      5-min Rain = 0
KHE1 170801Z 28009KT 03/M04 A3008 RMK A01 T00251037  RH  063%=      5-min Rain = 0
KHE1 170802Z 28008KT 03/M04 A3008 RMK A01 T00261038  RH  063%=      5-min Rain = 0
KHE1 170803Z 27008KT 03/M04 A3008 RMK A01 T00261038  RH  063%=      5-min Rain = 0
KHE1 170804Z 28009KT 03/M04 A3008 RMK A01 T00261038  RH  063%=      5-min Rain = 0
KHE1 170805Z 27008KT 03/M04 A3008 RMK A01 T00261037  RH  063%=      5-min Rain = 0
KHE1 170806Z 27008KT 03/M04 A3008 RMK A01 T00261037  RH  063%=      5-min Rain = 0
KHE1 170807Z 27008KT 03/M04 A3008 RMK A01 T00251038  RH  063%=      5-min Rain = 0
KHE1 170808Z 27008KT 03/M04 A3008 RMK A01 T00251038  RH  063%=      5-min Rain = 0
KHE1 170809Z 27008KT 02/M04 A3008 RMK A01 T00241038  RH  064%=      5-min Rain = 0
KHE1 170810Z 27008KT 02/M04 A3008 RMK A01 T00231038  RH  064%=      5-min Rain = 0
KHE1 170811Z 27008KT 02/M04 A3008 RMK A01 T00221038  RH  064%=      5-min Rain = 0
KHE1 170812Z 27009KT 02/M04 A3009 RMK A01 T00221038  RH  065%=      5-min Rain = 0
KHE1 170813Z 28009KT 02/M04 A3009 RMK A01 T00221038  RH  064%=      5-min Rain = 0
KHE1 170814Z 27009KT 02/M04 A3009 RMK A01 T00221038  RH  064%=      5-min Rain = 0
KHE1 170815Z 27008KT 02/M04 A3009 RMK A01 T00221038  RH  064%=      5-min Rain = 0
KHE1 170816Z 28009KT 02/M04 A3009 RMK A01 T00221038  RH  064%=      5-min Rain = 0
KHE1 170817Z 28009KT 02/M04 A3009 RMK A01 T00221038  RH  065%=      5-min Rain = 0
KHE1 170818Z 28008KT 02/M04 A3009 RMK A01 T00221037  RH  065%=      5-min Rain = 0
KHE1 170819Z 28008KT 02/M04 A3009 RMK A01 T00221037  RH  065%=      5-min Rain = 0
KHE1 170820Z 28008KT 02/M04 A3009 RMK A01 T00211037  RH  065%=      5-min Rain = 0
KHE1 170821Z 28008KT 02/M04 A3009 RMK A01 T00211037  RH  066%=      5-min Rain = 0
KHE1 170822Z 28008KT 02/M04 A3009 RMK A01 T00211037  RH  066%=      5-min Rain = 0
KHE1 170823Z 27008KT 02/M04 A3009 RMK A01 T00201036  RH  066%=      5-min Rain = 0
KHE1 170824Z 28008KT 02/M04 A3009 RMK A01 T00191037  RH  066%=      5-min Rain = 0
KHE1 170825Z 27008KT 02/M04 A3009 RMK A01 T00191036  RH  067%=      5-min Rain = 0
KHE1 170826Z 27008KT 02/M04 A3008 RMK A01 T00181036  RH  067%=      5-min Rain = 0
KHE1 170827Z 27008KT 02/M04 A3008 RMK A01 T00171037  RH  067%=      5-min Rain = 0
KHE1 170828Z 27008KT 02/M04 A3008 RMK A01 T00171037  RH  068%=      5-min Rain = 0
KHE1 170829Z 27008KT 02/M04 A3008 RMK A01 T00171037  RH  068%=      5-min Rain = 0
KHE1 170830Z 27008KT 02/M04 A3008 RMK A01 T00161036  RH  068%=      5-min Rain = 0
KHE1 170831Z 26008KT 02/M04 A3008 RMK A01 T00151036  RH  068%=      5-min Rain = 0
KHE1 170832Z 26008KT 02/M04 A3008 RMK A01 T00151036  RH  069%=      5-min Rain = 0
KHE1 170833Z 26008KT 02/M04 A3008 RMK A01 T00151036  RH  069%=      5-min Rain = 0
KHE1 170834Z 26008KT 02/M04 A3008 RMK A01 T00151036  RH  069%=      5-min Rain = 0
KHE1 170835Z 26008KT 02/M04 A3008 RMK A01 T00151036  RH  069%=      5-min Rain = 0
KHE1 170836Z 26008KT 02/M04 A3008 RMK A01 T00151036  RH  069%=      5-min Rain = 0
KHE1 170837Z 27008KT 02/M04 A3008 RMK A01 T00151036  RH  068%=      5-min Rain = 0
KHE1 170838Z 27008KT 02/M04 A3009 RMK A01 T00161036  RH  068%=      5-min Rain = 0
KHE1 170839Z 28008KT 02/M04 A3009 RMK A01 T00171036  RH  068%=      5-min Rain = 0
KHE1 170840Z 28009KT 02/M04 A3009 RMK A01 T00171036  RH  068%=      5-min Rain = 0
KHE1 170841Z 29008KT 02/M04 A3009 RMK A01 T00171036  RH  068%=      5-min Rain = 0
KHE1 170842Z 29008KT 02/M04 A3009 RMK A01 T00171035  RH  068%=      5-min Rain = 0
KHE1 170843Z 29008KT 02/M04 A3009 RMK A01 T00161035  RH  068%=      5-min Rain = 0
KHE1 170844Z 29009KT 02/M04 A3009 RMK A01 T00161036  RH  069%=      5-min Rain = 0
KHE1 170845Z 29009KT 02/M04 A3009 RMK A01 T00161037  RH  068%=      5-min Rain = 0
KHE1 170846Z 29008KT 02/M04 A3009 RMK A01 T00181037  RH  067%=      5-min Rain = 0
KHE1 170847Z 29008KT 02/M04 A3009 RMK A01 T00191037  RH  067%=      5-min Rain = 0
KHE1 170848Z 29008KT 02/M04 A3009 RMK A01 T00181037  RH  067%=      5-min Rain = 0
KHE1 170849Z 29008KT 02/M04 A3009 RMK A01 T00191038  RH  066%=      5-min Rain = 0
KHE1 170850Z 29008KT 02/M04 A3009 RMK A01 T00191038  RH  066%=      5-min Rain = 0
KHE1 170851Z 29008KT 02/M04 A3009 RMK A01 T00191038  RH  066%=      5-min Rain = 0
KHE1 170852Z 30008KT 02/M04 A3009 RMK A01 T00191038  RH  066%=      5-min Rain = 0
KHE1 170853Z 30008KT 02/M04 A3009 RMK A01 T00201038  RH  066%=      5-min Rain = 0
KHE1 170854Z 30008KT 02/M04 A3009 RMK A01 T00201038  RH  065%=      5-min Rain = 0
KHE1 170855Z 29007KT 02/M04 A3009 RMK A01 T00211038  RH  065%=      5-min Rain = 0
KHE1 170856Z 30007KT 02/M04 A3009 RMK A01 T00211038  RH  065%=      5-min Rain = 0
KHE1 170857Z 30007KT 02/M04 A3009 RMK A01 T00211038  RH  065%=      5-min Rain = 0
KHE1 170858Z 30007KT 02/M04 A3009 RMK A01 T00201038  RH  065%=      5-min Rain = 0
KHE1 170859Z 29007KT 02/M04 A3009 RMK A01 T00201038  RH  065%=      5-min Rain = 0
KHE1 170900Z 29007KT 02/M04 A3009 RMK A01 T00201039  RH  065%=      5-min Rain = 0
KHE1 170901Z 30007KT 02/M04 A3009 RMK A01 T00211039  RH  065%=      5-min Rain = 0
KHE1 170902Z 30007KT 02/M04 A3009 RMK A01 T00201039  RH  065%=      5-min Rain = 0
KHE1 170903Z 30006KT 02/M04 A3009 RMK A01 T00201039  RH  065%=      5-min Rain = 0
KHE1 170904Z 30006KT 02/M04 A3009 RMK A01 T00201039  RH  065%=      5-min Rain = 0
KHE1 170905Z 30006KT 02/M04 A3009 RMK A01 T00201039  RH  065%=      5-min Rain = 0
KHE1 170906Z 30006KT 02/M04 A3009 RMK A01 T00201039  RH  065%=      5-min Rain = 0
KHE1 170907Z 30006KT 02/M04 A3009 RMK A01 T00201039  RH  065%=      5-min Rain = 0
KHE1 170908Z 30005KT 02/M04 A3009 RMK A01 T00201039  RH  065%=      5-min Rain = 0
KHE1 170909Z 29006KT 02/M04 A3009 RMK A01 T00201040  RH  065%=      5-min Rain = 0
KHE1 170910Z 29005KT 02/M04 A3009 RMK A01 T00201040  RH  064%=      5-min Rain = 0
KHE1 170911Z 29005KT 02/M04 A3009 RMK A01 T00201040  RH  064%=      5-min Rain = 0
KHE1 170912Z 29005KT 02/M04 A301 RMK A01 T00201040  RH  065%=      5-min Rain = 0
KHE1 170913Z 28005KT 02/M04 A301 RMK A01 T00191040  RH  065%=      5-min Rain = 0
KHE1 170914Z 28005KT 02/M04 A301 RMK A01 T00171039  RH  066%=      5-min Rain = 0
KHE1 170915Z 27005KT 01/M04 A301 RMK A01 T00141038  RH  068%=      5-min Rain = 0
KHE1 170916Z 27006KT 01/M04 A301 RMK A01 T00111037  RH  070%=      5-min Rain = 0
KHE1 170917Z 27006KT 01/M04 A301 RMK A01 T00091036  RH  072%=      5-min Rain = 0
KHE1 170918Z 27006KT 01/M04 A301 RMK A01 T00081036  RH  072%=      5-min Rain = 0
KHE1 170919Z 27006KT 01/M04 A301 RMK A01 T00081036  RH  073%=      5-min Rain = 0
KHE1 170920Z 26006KT 01/M04 A301 RMK A01 T00081036  RH  073%=      5-min Rain = 0
KHE1 170921Z 26006KT 01/M04 A301 RMK A01 T00081036  RH  073%=      5-min Rain = 0
KHE1 170922Z 26005KT 01/M04 A301 RMK A01 T00081036  RH  073%=      5-min Rain = 0
KHE1 170923Z 26005KT 01/M04 A301 RMK A01 T00071037  RH  072%=      5-min Rain = 0
KHE1 170924Z 26006KT 01/M04 A301 RMK A01 T00061038  RH  072%=      5-min Rain = 0
KHE1 170925Z 26006KT 01/M04 A301 RMK A01 T00051038  RH  073%=      5-min Rain = 0
KHE1 170926Z 26006KT 01/M04 A301 RMK A01 T00051038  RH  073%=      5-min Rain = 0
KHE1 170927Z 26006KT 01/M04 A301 RMK A01 T00051037  RH  073%=      5-min Rain = 0
KHE1 170928Z 27007KT 00/M04 A301 RMK A01 T00041037  RH  074%=      5-min Rain = 0
KHE1 170929Z 27007KT 00/M04 A301 RMK A01 T00031036  RH  075%=      5-min Rain = 0
KHE1 170930Z 27006KT 00/M04 A301 RMK A01 T00031036  RH  075%=      5-min Rain = 0
KHE1 170931Z 27006KT 00/M04 A301 RMK A01 T00031036  RH  075%=      5-min Rain = 0
KHE1 170932Z 27006KT 00/M04 A301 RMK A01 T00031036  RH  075%=      5-min Rain = 0
KHE1 170933Z 27007KT 00/M04 A301 RMK A01 T00031037  RH  074%=      5-min Rain = 0
KHE1 170934Z 28006KT 00/M04 A301 RMK A01 T00031038  RH  074%=      5-min Rain = 0
KHE1 170935Z 28006KT 00/M04 A301 RMK A01 T00041038  RH  074%=      5-min Rain = 0
KHE1 170936Z 28007KT 00/M04 A301 RMK A01 T00041038  RH  073%=      5-min Rain = 0
KHE1 170937Z 27007KT 00/M04 A301 RMK A01 T00041038  RH  073%=      5-min Rain = 0
KHE1 170938Z 27007KT 01/M04 A301 RMK A01 T00051038  RH  073%=      5-min Rain = 0
KHE1 170939Z 26007KT 01/M04 A301 RMK A01 T00061037  RH  073%=      5-min Rain = 0
KHE1 170940Z 26007KT 00/M04 A301 RMK A01 T00041037  RH  074%=      5-min Rain = 0
KHE1 170941Z 26007KT 00/M04 A301 RMK A01 T00041037  RH  074%=      5-min Rain = 0
KHE1 170942Z 26007KT 00/M04 A301 RMK A01 T00031037  RH  074%=      5-min Rain = 0
KHE1 170943Z 26007KT 00/M04 A301 RMK A01 T00031037  RH  074%=      5-min Rain = 0
KHE1 170944Z 26007KT 00/M04 A301 RMK A01 T00031037  RH  074%=      5-min Rain = 0
KHE1 170945Z 26007KT 00/M04 A301 RMK A01 T00031037  RH  074%=      5-min Rain = 0
KHE1 170946Z 26007KT 00/M04 A301 RMK A01 T00041037  RH  074%=      5-min Rain = 0
KHE1 170947Z 27006KT 00/M04 A301 RMK A01 T00041038  RH  074%=      5-min Rain = 0
KHE1 170948Z 27007KT 00/M04 A301 RMK A01 T00041037  RH  074%=      5-min Rain = 0
KHE1 170949Z 27007KT 00/M04 A301 RMK A01 T00041037  RH  074%=      5-min Rain = 0
KHE1 170950Z 27006KT 00/M04 A301 RMK A01 T00041038  RH  074%=      5-min Rain = 0
KHE1 170951Z 27007KT 00/M04 A301 RMK A01 T00041037  RH  074%=      5-min Rain = 0
KHE1 170952Z 27007KT 00/M04 A301 RMK A01 T00031038  RH  074%=      5-min Rain = 0
KHE1 170953Z 27008KT 00/M04 A301 RMK A01 T00031037  RH  074%=      5-min Rain = 0
KHE1 170954Z 27008KT 00/M04 A301 RMK A01 T00031037  RH  074%=      5-min Rain = 0
KHE1 170955Z 27007KT 00/M04 A301 RMK A01 T00031037  RH  074%=      5-min Rain = 0
KHE1 170956Z 27007KT 00/M04 A301 RMK A01 T00031038  RH  074%=      5-min Rain = 0
KHE1 170957Z 27007KT 00/M04 A301 RMK A01 T00031038  RH  074%=      5-min Rain = 0
KHE1 170958Z 27008KT 00/M04 A301 RMK A01 T00031038  RH  074%=      5-min Rain = 0
KHE1 170959Z 27008KT 00/M04 A301 RMK A01 T00031038  RH  074%=      5-min Rain = 0
KHE1 171000Z 27008KT 00/M04 A301 RMK A01 T00031038  RH  074%=      5-min Rain = 0
KHE1 171001Z 27008KT 00/M04 A301 RMK A01 T00031038  RH  074%=      5-min Rain = 0
KHE1 171002Z 27008KT 00/M04 A301 RMK A01 T00031037  RH  074%=      5-min Rain = 0
KHE1 171003Z 28008KT 00/M04 A301 RMK A01 T00031038  RH  074%=      5-min Rain = 0
KHE1 171004Z 28008KT 00/M04 A301 RMK A01 T00031038  RH  074%=      5-min Rain = 0
KHE1 171005Z 28008KT 00/M04 A301 RMK A01 T00031038  RH  074%=      5-min Rain = 0
KHE1 171006Z 28008KT 00/M04 A301 RMK A01 T00031038  RH  074%=      5-min Rain = 0
KHE1 171007Z 27008KT 00/M04 A301 RMK A01 T00041037  RH  074%=      5-min Rain = 0
KHE1 171008Z 27008KT 00/M04 A301 RMK A01 T00041037  RH  074%=      5-min Rain = 0
KHE1 171009Z 27008KT 00/M04 A301 RMK A01 T00041038  RH  074%=      5-min Rain = 0
KHE1 171010Z 27008KT 00/M04 A301 RMK A01 T00041038  RH  074%=      5-min Rain = 0
KHE1 171011Z 28008KT 00/M04 A301 RMK A01 T00041038  RH  074%=      5-min Rain = 0
KHE1 171012Z 28009KT 00/M04 A301 RMK A01 T00041038  RH  074%=      5-min Rain = 0
KHE1 171013Z 28009KT 00/M04 A301 RMK A01 T00041037  RH  074%=      5-min Rain = 0
KHE1 171014Z 28009KT 00/M04 A301 RMK A01 T00041037  RH  074%=      5-min Rain = 0
KHE1 171015Z 28009KT 00/M04 A301 RMK A01 T00041037  RH  074%=      5-min Rain = 0
KHE1 171016Z 28009KT 01/M04 A301 RMK A01 T00051037  RH  073%=      5-min Rain = 0
KHE1 171017Z 28009KT 01/M04 A301 RMK A01 T00051038  RH  073%=      5-min Rain = 0
KHE1 171018Z 28009KT 01/M04 A301 RMK A01 T00061038  RH  073%=      5-min Rain = 0
KHE1 171019Z 28009KT 01/M04 A301 RMK A01 T00071038  RH  072%=      5-min Rain = 0
KHE1 171020Z 28009KT 01/M04 A301 RMK A01 T00071038  RH  072%=      5-min Rain = 0
KHE1 171021Z 28009KT 01/M04 A301 RMK A01 T00081038  RH  071%=      5-min Rain = 0
KHE1 171022Z 28009KT 01/M04 A301 RMK A01 T00081038  RH  071%=      5-min Rain = 0
KHE1 171023Z 28009KT 01/M04 A301 RMK A01 T00081038  RH  071%=      5-min Rain = 0
KHE1 171024Z 28009KT 01/M04 A301 RMK A01 T00081038  RH  071%=      5-min Rain = 0
KHE1 171025Z 28009KT 01/M04 A301 RMK A01 T00071038  RH  072%=      5-min Rain = 0
KHE1 171026Z 28009KT 01/M04 A301 RMK A01 T00071038  RH  072%=      5-min Rain = 0
KHE1 171027Z 29009KT 01/M04 A301 RMK A01 T00071038  RH  072%=      5-min Rain = 0
KHE1 171028Z 29009KT 01/M04 A301 RMK A01 T00071038  RH  072%=      5-min Rain = 0
KHE1 171029Z 29009KT 01/M04 A301 RMK A01 T00071038  RH  072%=      5-min Rain = 0
KHE1 171030Z 29009KT 01/M04 A301 RMK A01 T00071038  RH  072%=      5-min Rain = 0
KHE1 171031Z 29008KT 01/M04 A301 RMK A01 T00071039  RH  072%=      5-min Rain = 0
KHE1 171032Z 29008KT 01/M04 A301 RMK A01 T00071038  RH  072%=      5-min Rain = 0
KHE1 171033Z 29008KT 01/M04 A301 RMK A01 T00071039  RH  072%=      5-min Rain = 0
KHE1 171034Z 29008KT 01/M04 A301 RMK A01 T00071039  RH  072%=      5-min Rain = 0
KHE1 171035Z 28008KT 01/M04 A301 RMK A01 T00071039  RH  072%=      5-min Rain = 0
KHE1 171036Z 28008KT 01/M04 A301 RMK A01 T00071039  RH  072%=      5-min Rain = 0
KHE1 171037Z 28008KT 01/M04 A301 RMK A01 T00061039  RH  072%=      5-min Rain = 0
KHE1 171038Z 28008KT 01/M04 A301 RMK A01 T00051039  RH  072%=      5-min Rain = 0
KHE1 171039Z 28008KT 01/M04 A301 RMK A01 T00051038  RH  073%=      5-min Rain = 0
KHE1 171040Z 28008KT 00/M04 A301 RMK A01 T00041039  RH  073%=      5-min Rain = 0
KHE1 171041Z 28008KT 00/M04 A301 RMK A01 T00041039  RH  073%=      5-min Rain = 0
KHE1 171042Z 28008KT 00/M04 A301 RMK A01 T00041039  RH  073%=      5-min Rain = 0
KHE1 171043Z 28008KT 00/M04 A301 RMK A01 T00041039  RH  073%=      5-min Rain = 0
KHE1 171044Z 28008KT 00/M04 A301 RMK A01 T00041039  RH  073%=      5-min Rain = 0
KHE1 171045Z 28008KT 00/M04 A301 RMK A01 T00041039  RH  073%=      5-min Rain = 0
KHE1 171046Z 28009KT 00/M04 A301 RMK A01 T00031039  RH  073%=      5-min Rain = 0
KHE1 171047Z 28009KT 00/M04 A301 RMK A01 T00031039  RH  074%=      5-min Rain = 0
KHE1 171048Z 28009KT 00/M04 A3011 RMK A01 T00021039  RH  074%=      5-min Rain = 0
KHE1 171049Z 28009KT 00/M04 A3011 RMK A01 T00021039  RH  074%=      5-min Rain = 0
KHE1 171050Z 28008KT 00/M04 A3011 RMK A01 T00011039  RH  075%=      5-min Rain = 0
KHE1 171051Z 28008KT 00/M04 A3011 RMK A01 T00011039  RH  075%=      5-min Rain = 0
KHE1 171052Z 28008KT 00/04 A3011 RMK A01 T00-00-39  RH  075%=      5-min Rain = 0
KHE1 171053Z 28008KT 00/04 A3011 RMK A01 T00-00-38  RH  075%=      5-min Rain = 0
KHE1 171054Z 28008KT 00/04 A3011 RMK A01 T00-00-38  RH  076%=      5-min Rain = 0
KHE1 171055Z 28008KT 00/04 A3011 RMK A01 T00-00-38  RH  076%=      5-min Rain = 0
KHE1 171056Z 28008KT M00/M04 A3011 RMK A01 T10011038  RH  076%=      5-min Rain = 0
KHE1 171057Z 28008KT M00/M04 A3011 RMK A01 T10011038  RH  076%=      5-min Rain = 0
KHE1 171058Z 28008KT M00/M04 A3011 RMK A01 T10011038  RH  076%=      5-min Rain = 0
KHE1 171059Z 28008KT M00/M04 A3011 RMK A01 T10011038  RH  076%=      5-min Rain = 0
KHE1 171100Z 28007KT M00/M04 A3011 RMK A01 T10011039  RH  076%=      5-min Rain = 0
KHE1 171101Z 27007KT M00/M04 A3011 RMK A01 T10011039  RH  076%=      5-min Rain = 0
KHE1 171102Z 27007KT M00/M04 A3011 RMK A01 T10011038  RH  076%=      5-min Rain = 0
KHE1 171103Z 27007KT M00/M04 A3011 RMK A01 T10021038  RH  077%=      5-min Rain = 0
KHE1 171104Z 27007KT M00/M04 A3011 RMK A01 T10021037  RH  077%=      5-min Rain = 0
KHE1 171105Z 27007KT M00/M04 A3011 RMK A01 T10021036  RH  078%=      5-min Rain = 0
KHE1 171106Z 27007KT M00/M04 A3011 RMK A01 T10021036  RH  078%=      5-min Rain = 0
KHE1 171107Z 27007KT M00/M04 A3011 RMK A01 T10021036  RH  078%=      5-min Rain = 0
KHE1 171108Z 26007KT M00/M04 A3011 RMK A01 T10021036  RH  078%=      5-min Rain = 0
KHE1 171109Z 26007KT M00/M04 A3011 RMK A01 T10021036  RH  078%=      5-min Rain = 0
KHE1 171110Z 26007KT M00/M04 A3011 RMK A01 T10021036  RH  078%=      5-min Rain = 0
KHE1 171111Z 26007KT M00/M04 A3011 RMK A01 T10021036  RH  078%=      5-min Rain = 0
KHE1 171112Z 25007KT M00/M04 A3011 RMK A01 T10021036  RH  077%=      5-min Rain = 0
KHE1 171113Z 25007KT M00/M04 A3011 RMK A01 T10021036  RH  078%=      5-min Rain = 0
KHE1 171114Z 25007KT M00/M04 A3011 RMK A01 T10021036  RH  078%=      5-min Rain = 0
KHE1 171115Z 25006KT M00/M04 A3011 RMK A01 T10021036  RH  078%=      5-min Rain = 0
KHE1 171116Z 25006KT M00/M04 A3011 RMK A01 T10031037  RH  078%=      5-min Rain = 0
KHE1 171117Z 25007KT M00/M04 A3011 RMK A01 T10031037  RH  078%=      5-min Rain = 0
KHE1 171118Z 25006KT M00/M04 A3011 RMK A01 T10031038  RH  077%=      5-min Rain = 0
KHE1 171119Z 25006KT M00/M04 A3011 RMK A01 T10031038  RH  077%=      5-min Rain = 0
KHE1 171120Z 24006KT M00/M04 A3011 RMK A01 T10031038  RH  077%=      5-min Rain = 0
KHE1 171121Z 24006KT M00/M04 A3012 RMK A01 T10031038  RH  077%=      5-min Rain = 0
KHE1 171122Z 24006KT M00/M04 A3012 RMK A01 T10031037  RH  078%=      5-min Rain = 0
KHE1 171123Z 24006KT M00/M04 A3012 RMK A01 T10041038  RH  078%=      5-min Rain = 0
KHE1 171124Z 24006KT M00/M04 A3012 RMK A01 T10041038  RH  078%=      5-min Rain = 0
KHE1 171125Z 24006KT M01/M04 A3012 RMK A01 T10051037  RH  079%=      5-min Rain = 0
KHE1 171126Z 24006KT M01/M04 A3012 RMK A01 T10061037  RH  080%=      5-min Rain = 0
KHE1 171127Z 24007KT M01/M04 A3012 RMK A01 T10071037  RH  081%=      5-min Rain = 0
KHE1 171128Z 24007KT M01/M04 A3012 RMK A01 T10081036  RH  081%=      5-min Rain = 0
KHE1 171129Z 24007KT M01/M04 A3012 RMK A01 T10081036  RH  081%=      5-min Rain = 0
KHE1 171130Z 24007KT M01/M04 A3012 RMK A01 T10091036  RH  082%=      5-min Rain = 0
KHE1 171131Z 24008KT M01/M04 A3012 RMK A01 T10101036  RH  082%=      5-min Rain = 0
KHE1 171132Z 25008KT M01/M04 A3012 RMK A01 T10101036  RH  082%=      5-min Rain = 0
KHE1 171133Z 25008KT M01/M04 A3012 RMK A01 T10091036  RH  082%=      5-min Rain = 0
KHE1 171134Z 25007KT M01/M04 A3012 RMK A01 T10091036  RH  082%=      5-min Rain = 0
KHE1 171135Z 25008KT M01/M04 A3012 RMK A01 T10091036  RH  082%=      5-min Rain = 0
KHE1 171136Z 25008KT M01/M04 A3012 RMK A01 T10081036  RH  081%=      5-min Rain = 0
KHE1 171137Z 25008KT M01/M04 A3012 RMK A01 T10081036  RH  081%=      5-min Rain = 0
KHE1 171138Z 25008KT M01/M04 A3012 RMK A01 T10071036  RH  080%=      5-min Rain = 0
KHE1 171139Z 25007KT M01/M04 A3012 RMK A01 T10061036  RH  080%=      5-min Rain = 0
KHE1 171140Z 25008KT M01/M04 A3012 RMK A01 T10051036  RH  079%=      5-min Rain = 0
KHE1 171141Z 25007KT M00/M04 A3012 RMK A01 T10041036  RH  079%=      5-min Rain = 0
KHE1 171142Z 25007KT M00/M04 A3012 RMK A01 T10041036  RH  079%=      5-min Rain = 0
KHE1 171143Z 25008KT M00/M04 A3012 RMK A01 T10041036  RH  079%=      5-min Rain = 0
KHE1 171144Z 25008KT M00/M04 A3012 RMK A01 T10031036  RH  079%=      5-min Rain = 0
KHE1 171145Z 25008KT M00/M04 A3012 RMK A01 T10031035  RH  079%=      5-min Rain = 0
KHE1 171146Z 25008KT M00/M04 A3012 RMK A01 T10031035  RH  079%=      5-min Rain = 0
KHE1 171147Z 25008KT M00/M04 A3012 RMK A01 T10031035  RH  079%=      5-min Rain = 0
KHE1 171148Z 25007KT M00/M04 A3012 RMK A01 T10031035  RH  079%=      5-min Rain = 0
KHE1 171149Z 25007KT M00/M04 A3012 RMK A01 T10031035  RH  079%=      5-min Rain = 0
KHE1 171150Z 25007KT M00/M04 A3012 RMK A01 T10031035  RH  079%=      5-min Rain = 0
KHE1 171151Z 25007KT M00/M04 A3012 RMK A01 T10031035  RH  079%=      5-min Rain = 0
KHE1 171152Z 25007KT M00/M04 A3012 RMK A01 T10031035  RH  079%=      5-min Rain = 0
KHE1 171153Z 25007KT M00/M04 A3012 RMK A01 T10031036  RH  079%=      5-min Rain = 0
KHE1 171154Z 24007KT M00/M04 A3012 RMK A01 T10031036  RH  079%=      5-min Rain = 0
KHE1 171155Z 25007KT M00/M04 A3012 RMK A01 T10041036  RH  079%=      5-min Rain = 0
KHE1 171156Z 25007KT M00/M04 A3012 RMK A01 T10041036  RH  079%=      5-min Rain = 0
KHE1 171157Z 25007KT M00/M04 A3012 RMK A01 T10041036  RH  079%=      5-min Rain = 0
KHE1 171158Z 25007KT M00/M04 A3013 RMK A01 T10041036  RH  079%=      5-min Rain = 0
KHE1 171159Z 25007KT M00/M04 A3013 RMK A01 T10041036  RH  079%=      5-min Rain = 0
KHE1 171200Z 25007KT M01/M04 A3013 RMK A01 T10051036  RH  079%=      5-min Rain = 0
KHE1 171201Z 25007KT M00/M04 A3013 RMK A01 T10041036  RH  079%=      5-min Rain = 0
KHE1 171202Z 25007KT M00/M04 A3013 RMK A01 T10041036  RH  079%=      5-min Rain = 0
KHE1 171203Z 25007KT M00/M04 A3013 RMK A01 T10041036  RH  079%=      5-min Rain = 0
KHE1 171204Z 25007KT M00/M04 A3013 RMK A01 T10041036  RH  079%=      5-min Rain = 0
KHE1 171205Z 25007KT M00/M04 A3013 RMK A01 T10041035  RH  079%=      5-min Rain = 0
KHE1 171206Z 25007KT M00/M04 A3013 RMK A01 T10041035  RH  079%=      5-min Rain = 0
KHE1 171207Z 26007KT M00/M04 A3013 RMK A01 T10041035  RH  079%=      5-min Rain = 0
KHE1 171208Z 26007KT M00/M04 A3013 RMK A01 T10041035  RH  080%=      5-min Rain = 0
KHE1 171209Z 26007KT M00/M04 A3013 RMK A01 T10041035  RH  079%=      5-min Rain = 0
KHE1 171210Z 26007KT M00/M04 A3013 RMK A01 T10041035  RH  080%=      5-min Rain = 0
KHE1 171211Z 26007KT M00/M04 A3013 RMK A01 T10041035  RH  080%=      5-min Rain = 0
KHE1 171212Z 26008KT M00/M04 A3013 RMK A01 T10041035  RH  080%=      5-min Rain = 0
KHE1 171213Z 26007KT M00/M04 A3013 RMK A01 T10041035  RH  080%=      5-min Rain = 0
KHE1 171214Z 26007KT M00/M04 A3013 RMK A01 T10041035  RH  080%=      5-min Rain = 0
KHE1 171215Z 26007KT M01/M04 A3013 RMK A01 T10051035  RH  080%=      5-min Rain = 0
KHE1 171216Z 26008KT M00/M04 A3013 RMK A01 T10041035  RH  080%=      5-min Rain = 0
KHE1 171217Z 26008KT M00/M04 A3013 RMK A01 T10041035  RH  080%=      5-min Rain = 0
KHE1 171218Z 26008KT M00/M03 A3013 RMK A01 T10041034  RH  080%=      5-min Rain = 0
KHE1 171219Z 26008KT M01/M03 A3013 RMK A01 T10051034  RH  080%=      5-min Rain = 0
KHE1 171220Z 26007KT M01/M03 A3014 RMK A01 T10051034  RH  080%=      5-min Rain = 0
KHE1 171221Z 26007KT M01/M03 A3014 RMK A01 T10051034  RH  080%=      5-min Rain = 0
KHE1 171222Z 26007KT M00/M03 A3014 RMK A01 T10041034  RH  080%=      5-min Rain = 0
KHE1 171223Z 26007KT M01/M04 A3014 RMK A01 T10051035  RH  080%=      5-min Rain = 0
KHE1 171224Z 26007KT M00/M04 A3014 RMK A01 T10041035  RH  080%=      5-min Rain = 0
KHE1 171225Z 26007KT M01/M04 A3014 RMK A01 T10051035  RH  080%=      5-min Rain = 0
KHE1 171226Z 26007KT M01/M04 A3014 RMK A01 T10051035  RH  080%=      5-min Rain = 0
KHE1 171227Z 26007KT M00/M04 A3014 RMK A01 T10041035  RH  080%=      5-min Rain = 0
KHE1 171228Z 26007KT M00/M03 A3014 RMK A01 T10041034  RH  080%=      5-min Rain = 0
KHE1 171229Z 26008KT M00/M03 A3014 RMK A01 T10041034  RH  080%=      5-min Rain = 0
KHE1 171230Z 26007KT M00/M03 A3014 RMK A01 T10041034  RH  080%=      5-min Rain = 0
KHE1 171231Z 26007KT M00/M03 A3014 RMK A01 T10041034  RH  080%=      5-min Rain = 0
KHE1 171232Z 26007KT M00/M03 A3014 RMK A01 T10041034  RH  080%=      5-min Rain = 0
KHE1 171233Z 27007KT M00/M03 A3014 RMK A01 T10041033  RH  080%=      5-min Rain = 0
KHE1 171234Z 27007KT M00/M03 A3014 RMK A01 T10031034  RH  080%=      5-min Rain = 0
KHE1 171235Z 27007KT M00/M03 A3014 RMK A01 T10031034  RH  080%=      5-min Rain = 0
KHE1 171236Z 27007KT M00/M04 A3014 RMK A01 T10031035  RH  079%=      5-min Rain = 0
KHE1 171237Z 27007KT M00/M03 A3014 RMK A01 T10031034  RH  079%=      5-min Rain = 0
KHE1 171238Z 27007KT M00/M04 A3014 RMK A01 T10031035  RH  079%=      5-min Rain = 0
KHE1 171239Z 27007KT M00/M03 A3014 RMK A01 T10031034  RH  079%=      5-min Rain = 0
KHE1 171240Z 27008KT M00/M03 A3014 RMK A01 T10031034  RH  080%=      5-min Rain = 0
KHE1 171241Z 27008KT M00/M03 A3014 RMK A01 T10031034  RH  080%=      5-min Rain = 0
KHE1 171242Z 27007KT M00/M03 A3014 RMK A01 T10031034  RH  080%=      5-min Rain = 0
KHE1 171243Z 27007KT M00/M03 A3014 RMK A01 T10031033  RH  080%=      5-min Rain = 0
KHE1 171244Z 27007KT M00/M03 A3014 RMK A01 T10041034  RH  080%=      5-min Rain = 0
KHE1 171245Z 27007KT M00/M03 A3014 RMK A01 T10041034  RH  080%=      5-min Rain = 0
KHE1 171246Z 27007KT M00/M03 A3014 RMK A01 T10041034  RH  080%=      5-min Rain = 0
KHE1 171247Z 27007KT M00/M03 A3014 RMK A01 T10041034  RH  080%=      5-min Rain = 0
KHE1 171248Z 27007KT M00/M03 A3014 RMK A01 T10031034  RH  080%=      5-min Rain = 0
KHE1 171249Z 27007KT M00/M03 A3014 RMK A01 T10031034  RH  080%=      5-min Rain = 0
KHE1 171250Z 27007KT M00/M03 A3014 RMK A01 T10031034  RH  080%=      5-min Rain = 0
KHE1 171251Z 27007KT M00/M03 A3014 RMK A01 T10031033  RH  080%=      5-min Rain = 0
KHE1 171252Z 27007KT M00/M03 A3014 RMK A01 T10021033  RH  080%=      5-min Rain = 0
KHE1 171253Z 27007KT M00/M03 A3014 RMK A01 T10021033  RH  079%=      5-min Rain = 0
KHE1 171254Z 27007KT M00/M03 A3015 RMK A01 T10011033  RH  079%=      5-min Rain = 0
KHE1 171255Z 27007KT M00/M03 A3015 RMK A01 T10011033  RH  079%=      5-min Rain = 0
KHE1 171256Z 27007KT M00/M03 A3015 RMK A01 T10011033  RH  079%=      5-min Rain = 0
KHE1 171257Z 27007KT M00/M03 A3015 RMK A01 T10011033  RH  079%=      5-min Rain = 0
KHE1 171258Z 27007KT M00/M03 A3015 RMK A01 T10011033  RH  079%=      5-min Rain = 0
KHE1 171259Z 27007KT M00/M03 A3015 RMK A01 T10011033  RH  079%=      5-min Rain = 0
KHE1 171300Z 27007KT M00/M03 A3015 RMK A01 T10011033  RH  079%=      5-min Rain = 0
KHE1 171301Z 27007KT M00/M03 A3015 RMK A01 T10011033  RH  079%=      5-min Rain = 0
KHE1 171302Z 27007KT 00/03 A3015 RMK A01 T00-00-32  RH  079%=      5-min Rain = 0
KHE1 171303Z 27007KT 00/03 A3015 RMK A01 T00-00-32  RH  079%=      5-min Rain = 0
KHE1 171304Z 27007KT 00/03 A3015 RMK A01 T00-00-32  RH  079%=      5-min Rain = 0
KHE1 171305Z 28007KT 00/03 A3015 RMK A01 T00-00-32  RH  079%=      5-min Rain = 0
KHE1 171306Z 28007KT M00/M03 A3015 RMK A01 T10011032  RH  079%=      5-min Rain = 0
KHE1 171307Z 28007KT M00/M03 A3015 RMK A01 T10011033  RH  079%=      5-min Rain = 0
KHE1 171308Z 27007KT M00/M03 A3015 RMK A01 T10011033  RH  079%=      5-min Rain = 0
KHE1 171309Z 28007KT M00/M03 A3015 RMK A01 T10011032  RH  079%=      5-min Rain = 0
KHE1 171310Z 28007KT M00/M03 A3016 RMK A01 T10011032  RH  080%=      5-min Rain = 0
KHE1 171311Z 28007KT M00/M03 A3016 RMK A01 T10011032  RH  080%=      5-min Rain = 0
KHE1 171312Z 28007KT M00/M03 A3016 RMK A01 T10011032  RH  080%=      5-min Rain = 0
KHE1 171313Z 28007KT M00/M03 A3016 RMK A01 T10011032  RH  079%=      5-min Rain = 0
KHE1 171314Z 28008KT M00/M03 A3016 RMK A01 T10011033  RH  080%=      5-min Rain = 0
KHE1 171315Z 28008KT M00/M03 A3016 RMK A01 T10011032  RH  080%=      5-min Rain = 0
KHE1 171316Z 28008KT M00/M03 A3016 RMK A01 T10011032  RH  080%=      5-min Rain = 0
KHE1 171317Z 28007KT M00/M03 A3016 RMK A01 T10021033  RH  080%=      5-min Rain = 0
KHE1 171318Z 28007KT M00/M03 A3016 RMK A01 T10021033  RH  080%=      5-min Rain = 0
KHE1 171319Z 28008KT M00/M03 A3016 RMK A01 T10021033  RH  080%=      5-min Rain = 0
KHE1 171320Z 28007KT M00/M03 A3016 RMK A01 T10021033  RH  080%=      5-min Rain = 0
KHE1 171321Z 28007KT M00/M03 A3016 RMK A01 T10011032  RH  080%=      5-min Rain = 0
KHE1 171322Z 28007KT M00/M03 A3016 RMK A01 T10011032  RH  079%=      5-min Rain = 0
KHE1 171323Z 28007KT M00/M03 A3016 RMK A01 T10011032  RH  079%=      5-min Rain = 0
KHE1 171324Z 28007KT 00/03 A3016 RMK A01 T00-00-32  RH  079%=      5-min Rain = 0
KHE1 171325Z 28007KT 00/03 A3016 RMK A01 T00000-32  RH  079%=      5-min Rain = 0
KHE1 171326Z 28007KT 00/03 A3016 RMK A01 T00000-32  RH  079%=      5-min Rain = 0
KHE1 171327Z 28007KT 00/03 A3016 RMK A01 T00000-32  RH  078%=      5-min Rain = 0
KHE1 171328Z 28007KT 00/03 A3016 RMK A01 T00000-33  RH  078%=      5-min Rain = 0
KHE1 171329Z 28007KT 00/03 A3016 RMK A01 T00000-33  RH  078%=      5-min Rain = 0
KHE1 171330Z 28008KT 00/M03 A3016 RMK A01 T00011033  RH  078%=      5-min Rain = 0
KHE1 171331Z 28007KT 00/M03 A3016 RMK A01 T00011033  RH  078%=      5-min Rain = 0
KHE1 171332Z 28007KT 00/M03 A3016 RMK A01 T00011033  RH  078%=      5-min Rain = 0
KHE1 171333Z 28007KT 00/M03 A3016 RMK A01 T00011033  RH  078%=      5-min Rain = 0
KHE1 171334Z 28007KT 00/M03 A3016 RMK A01 T00011033  RH  078%=      5-min Rain = 0
KHE1 171335Z 28007KT 00/03 A3016 RMK A01 T00000-33  RH  078%=      5-min Rain = 0
KHE1 171336Z 28007KT 00/03 A3016 RMK A01 T00000-33  RH  078%=      5-min Rain = 0
KHE1 171337Z 28007KT 00/M03 A3016 RMK A01 T00011033  RH  078%=      5-min Rain = 0
KHE1 171338Z 28007KT 00/M03 A3016 RMK A01 T00011033  RH  078%=      5-min Rain = 0
KHE1 171339Z 28007KT 00/03 A3016 RMK A01 T00000-33  RH  078%=      5-min Rain = 0
KHE1 171340Z 28007KT 00/03 A3016 RMK A01 T00000-33  RH  078%=      5-min Rain = 0
KHE1 171341Z 28006KT 00/03 A3016 RMK A01 T00000-33  RH  078%=      5-min Rain = 0
KHE1 171342Z 29006KT 00/03 A3016 RMK A01 T00000-33  RH  078%=      5-min Rain = 0
KHE1 171343Z 29006KT 00/03 A3016 RMK A01 T00-00-33  RH  078%=      5-min Rain = 0
KHE1 171344Z 29006KT 00/03 A3016 RMK A01 T00-00-34  RH  078%=      5-min Rain = 0
KHE1 171345Z 29006KT M00/M03 A3016 RMK A01 T10011034  RH  078%=      5-min Rain = 0
KHE1 171346Z 29006KT M00/M03 A3016 RMK A01 T10011034  RH  078%=      5-min Rain = 0
KHE1 171347Z 29006KT 00/03 A3016 RMK A01 T00-00-34  RH  078%=      5-min Rain = 0
KHE1 171348Z 29006KT 00/03 A3016 RMK A01 T00-00-34  RH  078%=      5-min Rain = 0
KHE1 171349Z 29006KT 00/03 A3016 RMK A01 T00-00-34  RH  078%=      5-min Rain = 0
KHE1 171350Z 29006KT 00/03 A3016 RMK A01 T00-00-34  RH  078%=      5-min Rain = 0
KHE1 171351Z 29006KT 00/M03 A3016 RMK A01 T00011034  RH  078%=      5-min Rain = 0
KHE1 171352Z 29006KT 00/M03 A3016 RMK A01 T00011034  RH  078%=      5-min Rain = 0
KHE1 171353Z 29006KT 00/M03 A3016 RMK A01 T00011034  RH  078%=      5-min Rain = 0
KHE1 171354Z 29006KT 00/M03 A3016 RMK A01 T00011034  RH  078%=      5-min Rain = 0
KHE1 171355Z 29006KT 00/M03 A3016 RMK A01 T00011034  RH  078%=      5-min Rain = 0
KHE1 171356Z 28006KT 00/M03 A3016 RMK A01 T00011034  RH  078%=      5-min Rain = 0
KHE1 171357Z 28006KT 00/03 A3016 RMK A01 T00000-34  RH  078%=      5-min Rain = 0
KHE1 171358Z 28006KT 00/03 A3016 RMK A01 T00-00-34  RH  078%=      5-min Rain = 0
KHE1 171359Z 28006KT 00/03 A3016 RMK A01 T00-00-34  RH  078%=      5-min Rain = 0
KHE1 171400Z 28006KT 00/03 A3016 RMK A01 T00-00-34  RH  078%=      5-min Rain = 0
KHE1 171401Z 28006KT 00/03 A3016 RMK A01 T00-00-34  RH  078%=      5-min Rain = 0
KHE1 171402Z 28006KT M00/M03 A3016 RMK A01 T10011034  RH  078%=      5-min Rain = 0
KHE1 171403Z 28006KT 00/03 A3016 RMK A01 T00000-33  RH  078%=      5-min Rain = 0
KHE1 171404Z 28006KT 00/03 A3016 RMK A01 T00000-33  RH  078%=      5-min Rain = 0
KHE1 171405Z 28006KT 00/M03 A3016 RMK A01 T00011033  RH  078%=      5-min Rain = 0
KHE1 171406Z 28005KT 00/M03 A3016 RMK A01 T00011033  RH  078%=      5-min Rain = 0
KHE1 171407Z 28005KT 00/M03 A3016 RMK A01 T00011033  RH  078%=      5-min Rain = 0
KHE1 171408Z 28005KT 00/M03 A3016 RMK A01 T00011033  RH  078%=      5-min Rain = 0
KHE1 171409Z 27005KT 00/M03 A3016 RMK A01 T00011033  RH  078%=      5-min Rain = 0
KHE1 171410Z 27005KT 00/M03 A3016 RMK A01 T00011033  RH  078%=      5-min Rain = 0
KHE1 171411Z 27006KT 00/M03 A3016 RMK A01 T00021033  RH  078%=      5-min Rain = 0
KHE1 171412Z 27006KT 00/M03 A3016 RMK A01 T00021032  RH  078%=      5-min Rain = 0
KHE1 171413Z 28006KT 00/M03 A3017 RMK A01 T00021032  RH  078%=      5-min Rain = 0
KHE1 171414Z 28006KT 00/M03 A3017 RMK A01 T00021032  RH  078%=      5-min Rain = 0
KHE1 171415Z 28006KT 00/M03 A3017 RMK A01 T00031031  RH  078%=      5-min Rain = 0
KHE1 171416Z 28006KT 00/M03 A3017 RMK A01 T00031031  RH  078%=      5-min Rain = 0
KHE1 171417Z 28006KT 00/M03 A3017 RMK A01 T00031030  RH  078%=      5-min Rain = 0
KHE1 171418Z 28006KT 00/M03 A3017 RMK A01 T00041030  RH  078%=      5-min Rain = 0
KHE1 171419Z 28006KT 00/M03 A3017 RMK A01 T00041030  RH  078%=      5-min Rain = 0
KHE1 171420Z 28006KT 01/M03 A3017 RMK A01 T00051030  RH  077%=      5-min Rain = 0
KHE1 171421Z 28006KT 01/M03 A3017 RMK A01 T00061029  RH  077%=      5-min Rain = 0
KHE1 171422Z 29005KT 01/M03 A3017 RMK A01 T00071030  RH  077%=      5-min Rain = 0
KHE1 171423Z 28006KT 01/M03 A3017 RMK A01 T00081029  RH  076%=      5-min Rain = 0
KHE1 171424Z 29006KT 01/M03 A3017 RMK A01 T00091029  RH  076%=      5-min Rain = 0
KHE1 171425Z 28006KT 01/M03 A3017 RMK A01 T00101029  RH  076%=      5-min Rain = 0
KHE1 171426Z 28005KT 01/M03 A3018 RMK A01 T00101029  RH  075%=      5-min Rain = 0
KHE1 171427Z 29006KT 01/M03 A3018 RMK A01 T00111029  RH  075%=      5-min Rain = 0
KHE1 171428Z 28006KT 01/M03 A3018 RMK A01 T00111028  RH  075%=      5-min Rain = 0
KHE1 171429Z 28006KT 01/M03 A3018 RMK A01 T00121029  RH  074%=      5-min Rain = 0
KHE1 171430Z 28006KT 01/M03 A3018 RMK A01 T00131028  RH  074%=      5-min Rain = 0
KHE1 171431Z 28005KT 01/M03 A3018 RMK A01 T00131028  RH  074%=      5-min Rain = 0
KHE1 171432Z 28005KT 01/M03 A3018 RMK A01 T00141027  RH  074%=      5-min Rain = 0
KHE1 171433Z 28005KT 01/M03 A3018 RMK A01 T00141027  RH  074%=      5-min Rain = 0
KHE1 171434Z 28005KT 01/M03 A3018 RMK A01 T00141026  RH  075%=      5-min Rain = 0
KHE1 171435Z 28005KT 01/M03 A3018 RMK A01 T00141026  RH  074%=      5-min Rain = 0
KHE1 171436Z 28005KT 02/M03 A3018 RMK A01 T00151026  RH  074%=      5-min Rain = 0
KHE1 171437Z 28005KT 02/M03 A3018 RMK A01 T00161025  RH  074%=      5-min Rain = 0
KHE1 171438Z 28004KT 02/M03 A3018 RMK A01 T00161026  RH  074%=      5-min Rain = 0
KHE1 171439Z 29004KT 02/M03 A3018 RMK A01 T00171026  RH  073%=      5-min Rain = 0
KHE1 171440Z 29005KT 02/M03 A3018 RMK A01 T00181026  RH  073%=      5-min Rain = 0
KHE1 171441Z 28005KT 02/M03 A3018 RMK A01 T00181026  RH  072%=      5-min Rain = 0
KHE1 171442Z 28005KT 02/M03 A3018 RMK A01 T00191027  RH  071%=      5-min Rain = 0
KHE1 171443Z 29005KT 02/M03 A3018 RMK A01 T00201027  RH  071%=      5-min Rain = 0
KHE1 171444Z 28005KT 02/M03 A3018 RMK A01 T00201026  RH  071%=      5-min Rain = 0
KHE1 171445Z 28005KT 02/M03 A3018 RMK A01 T00211026  RH  071%=      5-min Rain = 0
KHE1 171446Z 28005KT 02/M03 A3018 RMK A01 T00211026  RH  071%=      5-min Rain = 0
KHE1 171447Z 29005KT 02/M03 A3018 RMK A01 T00211025  RH  071%=      5-min Rain = 0
KHE1 171448Z 29006KT 02/M03 A3018 RMK A01 T00211025  RH  071%=      5-min Rain = 0
KHE1 171449Z 29005KT 02/M03 A3018 RMK A01 T00211025  RH  071%=      5-min Rain = 0
KHE1 171450Z 29005KT 02/M03 A3018 RMK A01 T00221025  RH  071%=      5-min Rain = 0
KHE1 171451Z 29007KT 02/M03 A3018 RMK A01 T00221026  RH  070%=      5-min Rain = 0
KHE1 171452Z 29006KT 02/M03 A3018 RMK A01 T00231027  RH  070%=      5-min Rain = 0
KHE1 171453Z 29006KT 02/M03 A3018 RMK A01 T00231027  RH  069%=      5-min Rain = 0
KHE1 171454Z 29006KT 02/M03 A3018 RMK A01 T00241027  RH  069%=      5-min Rain = 0
KHE1 171455Z 28005KT 03/M03 A3018 RMK A01 T00251026  RH  069%=      5-min Rain = 0
KHE1 171456Z 29006KT 03/M03 A3018 RMK A01 T00261026  RH  069%=      5-min Rain = 0
KHE1 171457Z 29006KT 03/M03 A3018 RMK A01 T00261026  RH  069%=      5-min Rain = 0
KHE1 171458Z 28005KT 03/M03 A3018 RMK A01 T00271026  RH  068%=      5-min Rain = 0
KHE1 171459Z 28006KT 03/M03 A3018 RMK A01 T00271026  RH  068%=      5-min Rain = 0
KHE1 171500Z 28005KT 03/M03 A3018 RMK A01 T00281025  RH  068%=      5-min Rain = 0
KHE1 171501Z 28005KT 03/M02 A3018 RMK A01 T00291024  RH  068%=      5-min Rain = 0
KHE1 171502Z 28004KT 03/M02 A3018 RMK A01 T00291024  RH  068%=      5-min Rain = 0
KHE1 171503Z 28005KT 03/M02 A3018 RMK A01 T00301023  RH  068%=      5-min Rain = 0
KHE1 171504Z 28004KT 03/M02 A3018 RMK A01 T00301022  RH  068%=      5-min Rain = 0
KHE1 171505Z 28004KT 03/M02 A3018 RMK A01 T00311021  RH  069%=      5-min Rain = 0
KHE1 171506Z 28005KT 03/M02 A3018 RMK A01 T00311022  RH  068%=      5-min Rain = 0
KHE1 171507Z 28005KT 03/M02 A3019 RMK A01 T00311022  RH  068%=      5-min Rain = 0
KHE1 171508Z 29005KT 03/M02 A3019 RMK A01 T00311023  RH  068%=      5-min Rain = 0
KHE1 171509Z 28005KT 03/M02 A3019 RMK A01 T00311021  RH  068%=      5-min Rain = 0
KHE1 171510Z 28004KT 03/M02 A3019 RMK A01 T00311021  RH  068%=      5-min Rain = 0
KHE1 171511Z 28004KT 03/M02 A3019 RMK A01 T00321021  RH  068%=      5-min Rain = 0
KHE1 171512Z 28005KT 03/M02 A3019 RMK A01 T00321021  RH  068%=      5-min Rain = 0
KHE1 171513Z 28004KT 03/M02 A3019 RMK A01 T00321021  RH  068%=      5-min Rain = 0
KHE1 171514Z 28004KT 03/M02 A3019 RMK A01 T00331019  RH  069%=      5-min Rain = 0
KHE1 171515Z 28004KT 03/M02 A3019 RMK A01 T00341019  RH  068%=      5-min Rain = 0
KHE1 171516Z 27003KT 03/M02 A3019 RMK A01 T00341020  RH  068%=      5-min Rain = 0
KHE1 171517Z 28004KT 04/M02 A3019 RMK A01 T00351019  RH  068%=      5-min Rain = 0
KHE1 171518Z 28003KT 04/M02 A3019 RMK A01 T00351016  RH  069%=      5-min Rain = 0
KHE1 171519Z 28004KT 04/M02 A3019 RMK A01 T00371016  RH  068%=      5-min Rain = 0
KHE1 171520Z 28004KT 04/M02 A3019 RMK A01 T00381017  RH  067%=      5-min Rain = 0
KHE1 171521Z 28004KT 04/M02 A3019 RMK A01 T00381020  RH  066%=      5-min Rain = 0
KHE1 171522Z 28004KT 04/M02 A3019 RMK A01 T00381019  RH  066%=      5-min Rain = 0
KHE1 171523Z 28004KT 04/M02 A3019 RMK A01 T00381020  RH  066%=      5-min Rain = 0
KHE1 171524Z 28004KT 04/M02 A3019 RMK A01 T00381019  RH  066%=      5-min Rain = 0
KHE1 171525Z 28004KT 04/M02 A3019 RMK A01 T00381017  RH  067%=      5-min Rain = 0
KHE1 171526Z 27003KT 04/M02 A3019 RMK A01 T00391017  RH  067%=      5-min Rain = 0
KHE1 171527Z 28003KT 04/M02 A3019 RMK A01 T00391017  RH  067%=      5-min Rain = 0
KHE1 171528Z 28004KT 04/M02 A3019 RMK A01 T00391018  RH  066%=      5-min Rain = 0
KHE1 171529Z 28004KT 04/M02 A3019 RMK A01 T00391019  RH  066%=      5-min Rain = 0
KHE1 171530Z 29004KT 04/M02 A3019 RMK A01 T00391017  RH  067%=      5-min Rain = 0
KHE1 171531Z 28003KT 04/M02 A3019 RMK A01 T00401017  RH  067%=      5-min Rain = 0
KHE1 171532Z 29004KT 04/M02 A3019 RMK A01 T00401018  RH  066%=      5-min Rain = 0
KHE1 171533Z 30004KT 04/M02 A302 RMK A01 T00401018  RH  066%=      5-min Rain = 0
KHE1 171534Z 29003KT 04/M02 A302 RMK A01 T00401020  RH  065%=      5-min Rain = 0
KHE1 171535Z 29003KT 04/M02 A302 RMK A01 T00411017  RH  066%=      5-min Rain = 0
KHE1 171536Z 29004KT 04/M02 A302 RMK A01 T00411015  RH  067%=      5-min Rain = 0
KHE1 171537Z 30004KT 04/M02 A302 RMK A01 T00421015  RH  067%=      5-min Rain = 0
KHE1 171538Z 29004KT 04/M02 A302 RMK A01 T00421017  RH  065%=      5-min Rain = 0
KHE1 171539Z 29004KT 04/M02 A302 RMK A01 T00421016  RH  066%=      5-min Rain = 0
KHE1 171540Z 30004KT 04/M02 A302 RMK A01 T00421018  RH  065%=      5-min Rain = 0
KHE1 171541Z 30004KT 04/M02 A3021 RMK A01 T00411019  RH  065%=      5-min Rain = 0
KHE1 171542Z 30004KT 04/M02 A3021 RMK A01 T00411017  RH  066%=      5-min Rain = 0
KHE1 171543Z 29003KT 04/M01 A3021 RMK A01 T00411014  RH  067%=      5-min Rain = 0
KHE1 171544Z 30004KT 04/M02 A3021 RMK A01 T00421015  RH  066%=      5-min Rain = 0
KHE1 171545Z 29003KT 04/M02 A3021 RMK A01 T00421016  RH  066%=      5-min Rain = 0
KHE1 171546Z 30003KT 04/M01 A3021 RMK A01 T00421014  RH  067%=      5-min Rain = 0
KHE1 171547Z 30004KT 04/M02 A3021 RMK A01 T00411015  RH  067%=      5-min Rain = 0
KHE1 171548Z 30003KT 04/M02 A3021 RMK A01 T00411016  RH  066%=      5-min Rain = 0
KHE1 171549Z 29003KT 04/M01 A3021 RMK A01 T00411013  RH  068%=      5-min Rain = 0
KHE1 171550Z 29003KT 04/M01 A3021 RMK A01 T00411013  RH  068%=      5-min Rain = 0
KHE1 171551Z 30003KT 04/M02 A3021 RMK A01 T00421015  RH  067%=      5-min Rain = 0
KHE1 171552Z 29002KT 04/M01 A3021 RMK A01 T00421013  RH  068%=      5-min Rain = 0
KHE1 171553Z 30003KT 04/M01 A3021 RMK A01 T00411013  RH  068%=      5-min Rain = 0
KHE1 171554Z 29003KT 04/M01 A3021 RMK A01 T00421014  RH  067%=      5-min Rain = 0
KHE1 171555Z 29002KT 04/M01 A3021 RMK A01 T00421011  RH  069%=      5-min Rain = 0
KHE1 171556Z 30003KT 04/M01 A3021 RMK A01 T00421008  RH  069%=      5-min Rain = 0
KHE1 171557Z 30003KT 04/M01 A3021 RMK A01 T00431009  RH  069%=      5-min Rain = 0
KHE1 171558Z 30003KT 04/M01 A3021 RMK A01 T00441009  RH  069%=      5-min Rain = 0
KHE1 171559Z 29003KT 04/M01 A3021 RMK A01 T00441009  RH  068%=      5-min Rain = 0
KHE1 171600Z 29003KT 05/M01 A3021 RMK A01 T00451009  RH  068%=      5-min Rain = 0
KHE1 171601Z 30004KT 05/M01 A3021 RMK A01 T00461010  RH  067%=      5-min Rain = 0
KHE1 171602Z 30004KT 05/M01 A3021 RMK A01 T00471012  RH  066%=      5-min Rain = 0
KHE1 171603Z 29003KT 05/M01 A3021 RMK A01 T00471011  RH  066%=      5-min Rain = 0
KHE1 171604Z 30004KT 05/M01 A3021 RMK A01 T00481011  RH  066%=      5-min Rain = 0
KHE1 171605Z 30004KT 05/M01 A3021 RMK A01 T00481013  RH  064%=      5-min Rain = 0
KHE1 171606Z 28003KT 05/M01 A3021 RMK A01 T00481014  RH  064%=      5-min Rain = 0
KHE1 171607Z 28004KT 05/M01 A3021 RMK A01 T00481012  RH  065%=      5-min Rain = 0
KHE1 171608Z 29003KT 05/M01 A3021 RMK A01 T00481012  RH  065%=      5-min Rain = 0
KHE1 171609Z 28003KT 05/M01 A3021 RMK A01 T00481012  RH  065%=      5-min Rain = 0
KHE1 171610Z 27003KT 05/M01 A3021 RMK A01 T00481011  RH  065%=      5-min Rain = 0
KHE1 171611Z 28004KT 05/M01 A3021 RMK A01 T00491011  RH  065%=      5-min Rain = 0
KHE1 171612Z 27003KT 05/M01 A3021 RMK A01 T00491013  RH  064%=      5-min Rain = 0
KHE1 171613Z 26003KT 05/M01 A3021 RMK A01 T00491009  RH  066%=      5-min Rain = 0
KHE1 171614Z 26003KT 05/M01 A3021 RMK A01 T00491009  RH  066%=      5-min Rain = 0
KHE1 171615Z 26003KT 05/M01 A3021 RMK A01 T00501006  RH  067%=      5-min Rain = 0
KHE1 171616Z 25003KT 05/M00 A3021 RMK A01 T00501002  RH  069%=      5-min Rain = 0
KHE1 171617Z 25003KT 05/M01 A3021 RMK A01 T00511005  RH  067%=      5-min Rain = 0
KHE1 171618Z 26003KT 05/M01 A3021 RMK A01 T00501006  RH  067%=      5-min Rain = 0
KHE1 171619Z 26003KT 05/M00 A3021 RMK A01 T00501004  RH  068%=      5-min Rain = 0
KHE1 171620Z 26003KT 05/M00 A3021 RMK A01 T00501004  RH  068%=      5-min Rain = 0
KHE1 171621Z 26003KT 05/M01 A3021 RMK A01 T00511007  RH  066%=      5-min Rain = 0
KHE1 171622Z 26003KT 05/M01 A3021 RMK A01 T00511008  RH  066%=      5-min Rain = 0
KHE1 171623Z 28004KT 05/M01 A3021 RMK A01 T00511005  RH  067%=      5-min Rain = 0
KHE1 171624Z 27003KT 05/M01 A3021 RMK A01 T00521010  RH  064%=      5-min Rain = 0
KHE1 171625Z 28003KT 05/M01 A3021 RMK A01 T00521011  RH  064%=      5-min Rain = 0
KHE1 171626Z 29004KT 05/M01 A3021 RMK A01 T00521009  RH  065%=      5-min Rain = 0
KHE1 171627Z 28004KT 05/M01 A3021 RMK A01 T00531008  RH  065%=      5-min Rain = 0
KHE1 171628Z 28004KT 05/M01 A3021 RMK A01 T00531010  RH  064%=      5-min Rain = 0
KHE1 171629Z 28003KT 05/M01 A3021 RMK A01 T00531009  RH  064%=      5-min Rain = 0
KHE1 171630Z 28004KT 05/M01 A3021 RMK A01 T00541008  RH  064%=      5-min Rain = 0
KHE1 171631Z 28004KT 06/M01 A3021 RMK A01 T00551009  RH  063%=      5-min Rain = 0
KHE1 171632Z 28003KT 06/M01 A3021 RMK A01 T00551006  RH  065%=      5-min Rain = 0
KHE1 171633Z 28004KT 06/M01 A3021 RMK A01 T00561006  RH  065%=      5-min Rain = 0
KHE1 171634Z 28004KT 06/M00 A3021 RMK A01 T00571004  RH  065%=      5-min Rain = 0
KHE1 171635Z 29004KT 06/M01 A3021 RMK A01 T00571007  RH  063%=      5-min Rain = 0
KHE1 171636Z 29003KT 06/M01 A3021 RMK A01 T00571005  RH  064%=      5-min Rain = 0
KHE1 171637Z 28004KT 06/M00 A3021 RMK A01 T00581003  RH  065%=      5-min Rain = 0
KHE1 171638Z 28004KT 06/M00 A3021 RMK A01 T00591004  RH  064%=      5-min Rain = 0
KHE1 171639Z 29005KT 06/M01 A3021 RMK A01 T00591009  RH  062%=      5-min Rain = 0
KHE1 171640Z 29004KT 06/M01 A3021 RMK A01 T00581010  RH  061%=      5-min Rain = 0
KHE1 171641Z 30005KT 06/M01 A3021 RMK A01 T00581010  RH  062%=      5-min Rain = 0
KHE1 171642Z 30004KT 06/M01 A3021 RMK A01 T00581011  RH  061%=      5-min Rain = 0
KHE1 171643Z 29004KT 06/M01 A3021 RMK A01 T00601006  RH  063%=      5-min Rain = 0
KHE1 171644Z 29004KT 06/M00 A3021 RMK A01 T00621004  RH  063%=      5-min Rain = 0
KHE1 171645Z 28003KT 06/M01 A3021 RMK A01 T00621007  RH  061%=      5-min Rain = 0
KHE1 171646Z 28003KT 06/M00 A3021 RMK A01 T00631003  RH  063%=      5-min Rain = 0
KHE1 171647Z 29004KT 07/M01 A3021 RMK A01 T00651006  RH  061%=      5-min Rain = 0
KHE1 171648Z 29004KT 06/M01 A3021 RMK A01 T00641010  RH  059%=      5-min Rain = 0
KHE1 171649Z 29005KT 06/M01 A3021 RMK A01 T00641008  RH  060%=      5-min Rain = 0
KHE1 171650Z 29004KT 07/M01 A3021 RMK A01 T00651008  RH  060%=      5-min Rain = 0
KHE1 171651Z 29004KT 07/M01 A3021 RMK A01 T00651006  RH  060%=      5-min Rain = 0
KHE1 171652Z 29005KT 07/M00 A3021 RMK A01 T00671003  RH  061%=      5-min Rain = 0
KHE1 171653Z 30004KT 07/M01 A3021 RMK A01 T00681008  RH  059%=      5-min Rain = 0
KHE1 171654Z 30004KT 07/M01 A3021 RMK A01 T00681007  RH  059%=      5-min Rain = 0
KHE1 171655Z 29005KT 07/M01 A3021 RMK A01 T00691007  RH  059%=      5-min Rain = 0
KHE1 171656Z 29004KT 07/M01 A3021 RMK A01 T00691012  RH  056%=      5-min Rain = 0
KHE1 171657Z 30004KT 07/M01 A3021 RMK A01 T00691008  RH  058%=      5-min Rain = 0
KHE1 171658Z 29005KT 07/M01 A3021 RMK A01 T00691010  RH  057%=      5-min Rain = 0
KHE1 171659Z 30005KT 07/M01 A3021 RMK A01 T00691010  RH  057%=      5-min Rain = 0
KHE1 171700Z 30005KT 07/M01 A3021 RMK A01 T00701007  RH  058%=      5-min Rain = 0
KHE1 171701Z 30004KT 07/M01 A3021 RMK A01 T00701014  RH  055%=      5-min Rain = 0
KHE1 171702Z 31004KT 07/M01 A3021 RMK A01 T00701013  RH  055%=      5-min Rain = 0
KHE1 171703Z 30005KT 07/M01 A3021 RMK A01 T00711012  RH  056%=      5-min Rain = 0
KHE1 171704Z 30004KT 07/M01 A3021 RMK A01 T00711013  RH  055%=      5-min Rain = 0
KHE1 171705Z 31005KT 07/M01 A3021 RMK A01 T00721011  RH  056%=      5-min Rain = 0
KHE1 171706Z 30004KT 07/M01 A3021 RMK A01 T00721014  RH  054%=      5-min Rain = 0
KHE1 171707Z 30005KT 07/M01 A3021 RMK A01 T00721013  RH  055%=      5-min Rain = 0
KHE1 171708Z 31004KT 07/M01 A3021 RMK A01 T00721013  RH  055%=      5-min Rain = 0
KHE1 171709Z 30003KT 07/M01 A3021 RMK A01 T00731011  RH  055%=      5-min Rain = 0
KHE1 171710Z 30003KT 07/M01 A3021 RMK A01 T00741009  RH  056%=      5-min Rain = 0
KHE1 171711Z 30004KT 07/M01 A3021 RMK A01 T00731014  RH  054%=      5-min Rain = 0
KHE1 171712Z 30003KT 07/M01 A3021 RMK A01 T00741012  RH  054%=      5-min Rain = 0
KHE1 171713Z 30003KT 07/M01 A3021 RMK A01 T00741008  RH  056%=      5-min Rain = 0
KHE1 171714Z 31003KT 08/M01 A3021 RMK A01 T00751010  RH  055%=      5-min Rain = 0
KHE1 171715Z 30004KT 08/M01 A3021 RMK A01 T00761010  RH  055%=      5-min Rain = 0
KHE1 171716Z 30004KT 08/M01 A3021 RMK A01 T00761010  RH  054%=      5-min Rain = 0
KHE1 171717Z 30005KT 08/M01 A3021 RMK A01 T00761012  RH  054%=      5-min Rain = 0
KHE1 171718Z 31003KT 08/M01 A3021 RMK A01 T00761013  RH  053%=      5-min Rain = 0
KHE1 171719Z 31003KT 08/M01 A3021 RMK A01 T00761012  RH  054%=      5-min Rain = 0
KHE1 171720Z 30005KT 08/M01 A3021 RMK A01 T00761012  RH  054%=      5-min Rain = 0
KHE1 171721Z 31004KT 08/M01 A3021 RMK A01 T00761014  RH  053%=      5-min Rain = 0
KHE1 171722Z 30004KT 08/M01 A3021 RMK A01 T00761013  RH  053%=      5-min Rain = 0
KHE1 171723Z 29005KT 08/M01 A3021 RMK A01 T00761011  RH  054%=      5-min Rain = 0
KHE1 171724Z 29005KT 08/M02 A3021 RMK A01 T00771017  RH  051%=      5-min Rain = 0
KHE1 171725Z 29004KT 08/M02 A3021 RMK A01 T00761016  RH  052%=      5-min Rain = 0
KHE1 171726Z 30004KT 08/M02 A3021 RMK A01 T00771015  RH  052%=      5-min Rain = 0
KHE1 171727Z 29004KT 08/M02 A3021 RMK A01 T00771017  RH  051%=      5-min Rain = 0
KHE1 171728Z 28005KT 08/M02 A3021 RMK A01 T00771015  RH  052%=      5-min Rain = 0
KHE1 171729Z 28004KT 08/M02 A3021 RMK A01 T00771017  RH  051%=      5-min Rain = 0
KHE1 171730Z 28005KT 08/M02 A3021 RMK A01 T00781015  RH  052%=      5-min Rain = 0
KHE1 171731Z 29004KT 08/M02 A3021 RMK A01 T00791015  RH  052%=      5-min Rain = 0
KHE1 171732Z 27003KT 08/M02 A3021 RMK A01 T00791015  RH  052%=      5-min Rain = 0
KHE1 171733Z 29004KT 08/M01 A3021 RMK A01 T00791013  RH  052%=      5-min Rain = 0
KHE1 171734Z 28004KT 08/M01 A302 RMK A01 T00791012  RH  052%=      5-min Rain = 0
KHE1 171735Z 29004KT 08/M01 A302 RMK A01 T00801014  RH  052%=      5-min Rain = 0
KHE1 171736Z 30004KT 08/M02 A3021 RMK A01 T00801017  RH  050%=      5-min Rain = 0
KHE1 171737Z 29004KT 08/M02 A302 RMK A01 T00811016  RH  050%=      5-min Rain = 0
KHE1 171738Z 28004KT 08/M01 A302 RMK A01 T00801011  RH  052%=      5-min Rain = 0
KHE1 171739Z 29004KT 08/M01 A302 RMK A01 T00811011  RH  052%=      5-min Rain = 0
KHE1 171740Z 29004KT 08/M01 A302 RMK A01 T00831009  RH  052%=      5-min Rain = 0
KHE1 171741Z 29005KT 09/M01 A302 RMK A01 T00851011  RH  051%=      5-min Rain = 0
KHE1 171742Z 28005KT 09/M01 A302 RMK A01 T00861012  RH  050%=      5-min Rain = 0
KHE1 171743Z 27005KT 09/M01 A302 RMK A01 T00861013  RH  050%=      5-min Rain = 0
KHE1 171744Z 28005KT 09/M01 A302 RMK A01 T00861013  RH  050%=      5-min Rain = 0
KHE1 171745Z 28006KT 09/M02 A302 RMK A01 T00871016  RH  048%=      5-min Rain = 0
KHE1 171746Z 31005KT 09/M02 A302 RMK A01 T00871019  RH  047%=      5-min Rain = 0
KHE1 171747Z 32005KT 09/M02 A302 RMK A01 T00871018  RH  048%=      5-min Rain = 0
KHE1 171748Z 32006KT 09/M02 A302 RMK A01 T00891015  RH  048%=      5-min Rain = 0
KHE1 171749Z 31005KT 09/M02 A302 RMK A01 T00901017  RH  047%=      5-min Rain = 0
KHE1 171750Z 30005KT 09/M02 A302 RMK A01 T00901017  RH  047%=      5-min Rain = 0
KHE1 171751Z 29005KT 09/M02 A302 RMK A01 T00911018  RH  046%=      5-min Rain = 0
KHE1 171752Z 29005KT 09/M02 A302 RMK A01 T00911015  RH  047%=      5-min Rain = 0
KHE1 171753Z 30005KT 09/M02 A302 RMK A01 T00911022  RH  045%=      5-min Rain = 0
KHE1 171754Z 32005KT 09/M02 A3019 RMK A01 T00901022  RH  045%=      5-min Rain = 0
KHE1 171755Z 31004KT 09/M02 A3019 RMK A01 T00911018  RH  046%=      5-min Rain = 0
KHE1 171756Z 30005KT 09/M02 A3019 RMK A01 T00931016  RH  046%=      5-min Rain = 0
KHE1 171757Z 30006KT 09/M02 A3019 RMK A01 T00931022  RH  044%=      5-min Rain = 0
KHE1 171758Z 32006KT 09/M02 A3019 RMK A01 T00931021  RH  045%=      5-min Rain = 0
KHE1 171759Z 32006KT 09/M02 A3019 RMK A01 T00931024  RH  044%=      5-min Rain = 0
KHE1 171800Z 31005KT 10/M01 A3019 RMK A01 T00951014  RH  047%=      5-min Rain = 0
KHE1 171801Z 31006KT 10/M02 A3019 RMK A01 T00961018  RH  045%=      5-min Rain = 0
KHE1 171802Z 31006KT 10/M02 A3019 RMK A01 T00961015  RH  046%=      5-min Rain = 0
KHE1 171803Z 31005KT 09/M02 A3019 RMK A01 T00941022  RH  044%=      5-min Rain = 0
KHE1 171804Z 29005KT 09/M02 A3018 RMK A01 T00931018  RH  046%=      5-min Rain = 0
KHE1 171805Z 28004KT 09/M02 A3018 RMK A01 T00931023  RH  044%=      5-min Rain = 0
KHE1 171806Z 30005KT 09/M02 A3018 RMK A01 T00931022  RH  044%=      5-min Rain = 0
KHE1 171807Z 31005KT 09/M02 A3018 RMK A01 T00931023  RH  044%=      5-min Rain = 0
KHE1 171808Z 32005KT 09/M02 A3018 RMK A01 T00931024  RH  044%=      5-min Rain = 0
KHE1 171809Z 28004KT 09/M02 A3018 RMK A01 T00941023  RH  044%=      5-min Rain = 0
KHE1 171810Z 28004KT 09/M02 A3018 RMK A01 T00941016  RH  046%=      5-min Rain = 0
KHE1 171811Z 27004KT 10/M01 A3018 RMK A01 T00951013  RH  047%=      5-min Rain = 0
KHE1 171812Z 29005KT 10/M01 A3018 RMK A01 T00961014  RH  046%=      5-min Rain = 0
KHE1 171813Z 30005KT 10/M02 A3018 RMK A01 T00961018  RH  045%=      5-min Rain = 0
KHE1 171814Z 28004KT 09/M02 A3018 RMK A01 T00941015  RH  046%=      5-min Rain = 0
KHE1 171815Z 27004KT 09/M02 A3018 RMK A01 T00941016  RH  046%=      5-min Rain = 0
KHE1 171816Z 29003KT 09/M02 A3018 RMK A01 T00941015  RH  046%=      5-min Rain = 0
KHE1 171817Z 32005KT 10/M02 A3018 RMK A01 T00951016  RH  046%=      5-min Rain = 0
KHE1 171818Z 32005KT 10/M02 A3018 RMK A01 T00971018  RH  044%=      5-min Rain = 0
KHE1 171819Z 31005KT 10/M02 A3017 RMK A01 T00971021  RH  043%=      5-min Rain = 0
KHE1 171820Z 32005KT 10/M02 A3017 RMK A01 T00971019  RH  044%=      5-min Rain = 0
KHE1 171821Z 34004KT 10/M02 A3017 RMK A01 T00981020  RH  044%=      5-min Rain = 0
KHE1 171822Z 34004KT 10/M02 A3017 RMK A01 T01001023  RH  042%=      5-min Rain = 0
KHE1 171823Z 30005KT 10/M01 A3017 RMK A01 T01011013  RH  045%=      5-min Rain = 0
KHE1 171824Z 30005KT 10/M02 A3017 RMK A01 T01021016  RH  044%=      5-min Rain = 0
KHE1 171825Z 30004KT 10/M02 A3017 RMK A01 T01011018  RH  044%=      5-min Rain = 0
KHE1 171826Z 30005KT 10/M02 A3017 RMK A01 T01001016  RH  044%=      5-min Rain = 0
KHE1 171827Z 30005KT 10/M01 A3017 RMK A01 T01011013  RH  045%=      5-min Rain = 0
KHE1 171828Z 29005KT 10/M01 A3017 RMK A01 T01031013  RH  044%=      5-min Rain = 0
KHE1 171829Z 32005KT 10/M02 A3017 RMK A01 T01031019  RH  042%=      5-min Rain = 0
KHE1 171830Z 31005KT 10/M02 A3017 RMK A01 T01021021  RH  042%=      5-min Rain = 0
KHE1 171831Z 33004KT 10/M03 A3017 RMK A01 T01011026  RH  041%=      5-min Rain = 0
KHE1 171832Z 30005KT 10/M02 A3016 RMK A01 T01011022  RH  042%=      5-min Rain = 0
KHE1 171833Z 31004KT 10/M02 A3016 RMK A01 T01011023  RH  042%=      5-min Rain = 0
KHE1 171834Z 31004KT 10/M02 A3016 RMK A01 T01011021  RH  043%=      5-min Rain = 0
KHE1 171835Z 32005KT 10/M02 A3016 RMK A01 T01031024  RH  041%=      5-min Rain = 0
KHE1 171836Z 33005KT 10/M02 A3016 RMK A01 T01031024  RH  041%=      5-min Rain = 0
KHE1 171837Z 33005KT 10/M02 A3016 RMK A01 T01041023  RH  041%=      5-min Rain = 0
KHE1 171838Z 32005KT 11/M02 A3016 RMK A01 T01051019  RH  042%=      5-min Rain = 0
KHE1 171839Z 34006KT 11/M02 A3016 RMK A01 T01051023  RH  041%=      5-min Rain = 0
KHE1 171840Z 35006KT 11/M03 A3016 RMK A01 T01051029  RH  039%=      5-min Rain = 0
KHE1 171841Z 35004KT 10/M03 A3016 RMK A01 T01041031  RH  038%=      5-min Rain = 0
KHE1 171842Z 34004KT 10/M03 A3016 RMK A01 T01041029  RH  039%=      5-min Rain = 0
KHE1 171843Z 32006KT 11/M02 A3016 RMK A01 T01061019  RH  042%=      5-min Rain = 0
KHE1 171844Z 34008KT 11/M02 A3016 RMK A01 T01091024  RH  040%=      5-min Rain = 0
KHE1 171845Z 35007KT 11/M02 A3016 RMK A01 T01091022  RH  040%=      5-min Rain = 0
KHE1 171846Z 35007KT 11/M03 A3016 RMK A01 T01091025  RH  039%=      5-min Rain = 0
KHE1 171847Z 34006KT 11/M03 A3016 RMK A01 T01071027  RH  039%=      5-min Rain = 0
KHE1 171848Z 32006KT 11/M02 A3016 RMK A01 T01071024  RH  040%=      5-min Rain = 0
KHE1 171849Z 32007KT 11/M02 A3016 RMK A01 T01081024  RH  039%=      5-min Rain = 0
KHE1 171850Z 33008KT 11/M03 A3016 RMK A01 T01091026  RH  039%=      5-min Rain = 0
KHE1 171851Z 33008KT 11/M03 A3016 RMK A01 T01081029  RH  038%=      5-min Rain = 0
KHE1 171852Z 34008KT 11/M03 A3016 RMK A01 T01081031  RH  038%=      5-min Rain = 0
KHE1 171853Z 33008KT 11/M03 A3016 RMK A01 T01071029  RH  038%=      5-min Rain = 0
KHE1 171854Z 34006KT 11/M03 A3016 RMK A01 T01071030  RH  038%=      5-min Rain = 0
KHE1 171855Z 36006KT 11/M02 A3015 RMK A01 T01071024  RH  040%=      5-min Rain = 0
KHE1 171856Z 35007KT 11/M02 A3015 RMK A01 T01091024  RH  039%=      5-min Rain = 0
KHE1 171857Z 36006KT 11/M03 A3015 RMK A01 T01091025  RH  039%=      5-min Rain = 0
KHE1 171858Z 35005KT 11/M03 A3015 RMK A01 T01081025  RH  039%=      5-min Rain = 0
KHE1 171859Z 35005KT 11/M03 A3015 RMK A01 T01081029  RH  038%=      5-min Rain = 0
KHE1 171900Z 33007KT 11/M03 A3015 RMK A01 T01071030  RH  038%=      5-min Rain = 0
KHE1 171901Z 36006KT 11/M03 A3015 RMK A01 T01071029  RH  038%=      5-min Rain = 0
KHE1 171902Z 35005KT 11/M02 A3015 RMK A01 T01091022  RH  040%=      5-min Rain = 0
KHE1 171903Z 32007KT 11/M02 A3015 RMK A01 T01111023  RH  039%=      5-min Rain = 0
KHE1 171904Z 33006KT 11/M02 A3015 RMK A01 T01111024  RH  039%=      5-min Rain = 0
KHE1 171905Z 35006KT 11/M03 A3015 RMK A01 T01111026  RH  038%=      5-min Rain = 0
KHE1 171906Z 35006KT 11/M03 A3015 RMK A01 T01101030  RH  037%=      5-min Rain = 0
KHE1 171907Z 35005KT 11/M02 A3015 RMK A01 T01101021  RH  040%=      5-min Rain = 0
KHE1 171908Z 00005KT 11/M03 A3015 RMK A01 T01121025  RH  038%=      5-min Rain = 0
KHE1 171909Z 00005KT 11/M02 A3014 RMK A01 T01141017  RH  040%=      5-min Rain = 0
KHE1 171910Z 35005KT 12/M02 A3014 RMK A01 T01171019  RH  039%=      5-min Rain = 0
KHE1 171911Z 00005KT 12/M02 A3014 RMK A01 T01171024  RH  037%=      5-min Rain = 0
KHE1 171912Z 36005KT 11/M03 A3014 RMK A01 T01141028  RH  037%=      5-min Rain = 0
KHE1 171913Z 36006KT 11/M03 A3014 RMK A01 T01121028  RH  038%=      5-min Rain = 0
KHE1 171914Z 01004KT 11/M03 A3014 RMK A01 T01111025  RH  039%=      5-min Rain = 0
KHE1 171915Z 35005KT 11/M02 A3014 RMK A01 T01121020  RH  040%=      5-min Rain = 0
KHE1 171916Z 34003KT 11/M03 A3014 RMK A01 T01131028  RH  037%=      5-min Rain = 0
KHE1 171917Z 01002KT 11/M02 A3014 RMK A01 T01121023  RH  039%=      5-min Rain = 0
KHE1 171918Z 36004KT 11/M02 A3014 RMK A01 T01131021  RH  039%=      5-min Rain = 0
KHE1 171919Z 33004KT 11/M03 A3014 RMK A01 T01131028  RH  037%=      5-min Rain = 0
KHE1 171920Z 34004KT 11/M03 A3014 RMK A01 T01131030  RH  037%=      5-min Rain = 0
KHE1 171921Z 01008KT 11/M03 A3014 RMK A01 T01131033  RH  036%=      5-min Rain = 0
KHE1 171922Z 00007KT 11/M03 A3014 RMK A01 T01131033  RH  036%=      5-min Rain = 0
KHE1 171923Z 36006KT 11/M03 A3014 RMK A01 T01141033  RH  036%=      5-min Rain = 0
KHE1 171924Z 00005KT 11/M04 A3014 RMK A01 T01131035  RH  035%=      5-min Rain = 0
KHE1 171925Z 02006KT 11/M04 A3014 RMK A01 T01131035  RH  035%=      5-min Rain = 0
KHE1 171926Z 03006KT 11/M04 A3014 RMK A01 T01131035  RH  035%=      5-min Rain = 0
KHE1 171927Z 02005KT 11/M04 A3014 RMK A01 T01121037  RH  035%=      5-min Rain = 0
KHE1 171928Z 02006KT 11/M03 A3014 RMK A01 T01131032  RH  036%=      5-min Rain = 0
KHE1 171929Z 02006KT 11/M03 A3014 RMK A01 T01131032  RH  036%=      5-min Rain = 0
KHE1 171930Z 01006KT 11/M03 A3014 RMK A01 T01131032  RH  036%=      5-min Rain = 0
KHE1 171931Z 01005KT 11/M03 A3014 RMK A01 T01141027  RH  037%=      5-min Rain = 0
KHE1 171932Z 01003KT 12/M03 A3013 RMK A01 T01151028  RH  036%=      5-min Rain = 0
KHE1 171933Z 32003KT 12/M03 A3013 RMK A01 T01161027  RH  037%=      5-min Rain = 0
KHE1 171934Z 32005KT 12/M03 A3013 RMK A01 T01161026  RH  037%=      5-min Rain = 0
KHE1 171935Z 32006KT 12/M03 A3013 RMK A01 T01161030  RH  036%=      5-min Rain = 0
KHE1 171936Z 34004KT 12/M04 A3013 RMK A01 T01151035  RH  035%=      5-min Rain = 0
KHE1 171937Z 00004KT 11/M03 A3013 RMK A01 T01141030  RH  036%=      5-min Rain = 0
KHE1 171938Z 02004KT 12/M03 A3013 RMK A01 T01151033  RH  035%=      5-min Rain = 0
KHE1 171939Z 01004KT 12/M03 A3013 RMK A01 T01171029  RH  036%=      5-min Rain = 0
KHE1 171940Z 36003KT 12/M03 A3013 RMK A01 T01191034  RH  034%=      5-min Rain = 0
KHE1 171941Z 36003KT 12/M03 A3013 RMK A01 T01191034  RH  034%=      5-min Rain = 0
KHE1 171942Z 33003KT 12/M03 A3013 RMK A01 T01201029  RH  035%=      5-min Rain = 0
KHE1 171943Z 33005KT 12/M03 A3013 RMK A01 T01211033  RH  034%=      5-min Rain = 0
KHE1 171944Z 35004KT 12/M03 A3013 RMK A01 T01201032  RH  034%=      5-min Rain = 0
KHE1 171945Z 34004KT 12/M03 A3013 RMK A01 T01181030  RH  035%=      5-min Rain = 0
KHE1 171946Z 31006KT 12/M03 A3013 RMK A01 T01181034  RH  034%=      5-min Rain = 0
KHE1 171947Z 29005KT 12/M04 A3013 RMK A01 T01171035  RH  035%=      5-min Rain = 0
KHE1 171948Z 29005KT 12/M04 A3013 RMK A01 T01161037  RH  034%=      5-min Rain = 0
KHE1 171949Z 29005KT 12/M04 A3013 RMK A01 T01151036  RH  034%=      5-min Rain = 0
KHE1 171950Z 28002KT 12/M04 A3013 RMK A01 T01151036  RH  035%=      5-min Rain = 0
KHE1 171951Z 31005KT 12/M03 A3013 RMK A01 T01151034  RH  035%=      5-min Rain = 0
KHE1 171952Z 35005KT 12/M03 A3013 RMK A01 T01171029  RH  036%=      5-min Rain = 0
KHE1 171953Z 01004KT 12/M04 A3013 RMK A01 T01181036  RH  034%=      5-min Rain = 0
KHE1 171954Z 01004KT 12/M04 A3012 RMK A01 T01181037  RH  034%=      5-min Rain = 0
KHE1 171955Z 35002KT 12/M04 A3012 RMK A01 T01181037  RH  034%=      5-min Rain = 0
KHE1 171956Z 30003KT 12/M04 A3012 RMK A01 T01181035  RH  034%=      5-min Rain = 0
KHE1 171957Z 30005KT 12/M04 A3012 RMK A01 T01191037  RH  034%=      5-min Rain = 0
KHE1 171958Z 29004KT 12/M04 A3012 RMK A01 T01181040  RH  033%=      5-min Rain = 0
KHE1 171959Z 28005KT 12/M04 A3012 RMK A01 T01171038  RH  033%=      5-min Rain = 0
KHE1 172000Z 29006KT 12/M04 A3012 RMK A01 T01161040  RH  033%=      5-min Rain = 0
KHE1 172001Z 28006KT 12/M04 A3012 RMK A01 T01161038  RH  034%=      5-min Rain = 0
KHE1 172002Z 30005KT 12/M04 A3012 RMK A01 T01161039  RH  034%=      5-min Rain = 0
KHE1 172003Z 29005KT 12/M04 A3012 RMK A01 T01161036  RH  034%=      5-min Rain = 0
KHE1 172004Z 29007KT 12/M04 A3012 RMK A01 T01161037  RH  034%=      5-min Rain = 0
KHE1 172005Z 29005KT 12/M04 A3013 RMK A01 T01171039  RH  033%=      5-min Rain = 0
KHE1 172006Z 28004KT 12/M04 A3013 RMK A01 T01161041  RH  033%=      5-min Rain = 0
KHE1 172007Z 28004KT 12/M04 A3013 RMK A01 T01151041  RH  033%=      5-min Rain = 0
KHE1 172008Z 29003KT 12/M04 A3012 RMK A01 T01161036  RH  034%=      5-min Rain = 0
KHE1 172009Z 32005KT 12/M03 A3012 RMK A01 T01201033  RH  034%=      5-min Rain = 0
KHE1 172010Z 32002KT 12/M04 A3012 RMK A01 T01211041  RH  032%=      5-min Rain = 0
KHE1 172011Z 31004KT 12/M04 A3012 RMK A01 T01201038  RH  033%=      5-min Rain = 0
KHE1 172012Z 33005KT 12/M04 A3012 RMK A01 T01211036  RH  033%=      5-min Rain = 0
KHE1 172013Z 30005KT 12/M04 A3012 RMK A01 T01211038  RH  033%=      5-min Rain = 0
KHE1 172014Z 31005KT 12/M04 A3012 RMK A01 T01211044  RH  031%=      5-min Rain = 0
KHE1 172015Z 32002KT 12/M04 A3012 RMK A01 T01201043  RH  032%=      5-min Rain = 0
KHE1 172016Z 34004KT 12/M04 A3012 RMK A01 T01201042  RH  032%=      5-min Rain = 0
KHE1 172017Z 35004KT 12/M04 A3013 RMK A01 T01201041  RH  032%=      5-min Rain = 0
KHE1 172018Z 01003KT 12/M04 A3013 RMK A01 T01191041  RH  032%=      5-min Rain = 0
KHE1 172019Z 06001KT 12/M04 A3013 RMK A01 T01191038  RH  033%=      5-min Rain = 0
KHE1 172020Z 35002KT 12/M03 A3013 RMK A01 T01211033  RH  034%=      5-min Rain = 0
KHE1 172021Z 32005KT 12/M04 A3013 RMK A01 T01221042  RH  032%=      5-min Rain = 0
KHE1 172022Z 31007KT 12/M03 A3012 RMK A01 T01221034  RH  033%=      5-min Rain = 0
KHE1 172023Z 32004KT 12/M04 A3012 RMK A01 T01231041  RH  032%=      5-min Rain = 0
KHE1 172024Z 32003KT 12/M05 A3012 RMK A01 T01221045  RH  031%=      5-min Rain = 0
KHE1 172025Z 32004KT 12/M05 A3012 RMK A01 T01201045  RH  031%=      5-min Rain = 0
KHE1 172026Z 32006KT 12/M04 A3012 RMK A01 T01221035  RH  033%=      5-min Rain = 0
KHE1 172027Z 32005KT 12/M04 A3012 RMK A01 T01241042  RH  031%=      5-min Rain = 0
KHE1 172028Z 31003KT 12/M05 A3012 RMK A01 T01231049  RH  030%=      5-min Rain = 0
KHE1 172029Z 32004G9KT 12/M04 A3012 RMK A01 T01221043  RH  031%=      5-min Rain = 0
KHE1 172030Z 31007KT 12/M04 A3012 RMK A01 T01231044  RH  031%=      5-min Rain = 0
KHE1 172031Z 32007KT 12/M04 A3012 RMK A01 T01231044  RH  031%=      5-min Rain = 0
KHE1 172032Z 31007KT 12/M05 A3012 RMK A01 T01241048  RH  030%=      5-min Rain = 0
KHE1 172033Z 31007KT 12/M05 A3012 RMK A01 T01231045  RH  031%=      5-min Rain = 0
KHE1 172034Z 31006KT 12/M05 A3012 RMK A01 T01221048  RH  030%=      5-min Rain = 0
KHE1 172035Z 32006KT 12/M05 A3012 RMK A01 T01221048  RH  030%=      5-min Rain = 0
KHE1 172036Z 32005KT 12/M05 A3012 RMK A01 T01211050  RH  030%=      5-min Rain = 0
KHE1 172037Z 33006KT 12/M05 A3012 RMK A01 T01211045  RH  031%=      5-min Rain = 0
KHE1 172038Z 34003KT 12/M04 A3012 RMK A01 T01211040  RH  032%=      5-min Rain = 0
KHE1 172039Z 35003KT 12/M04 A3012 RMK A01 T01231042  RH  031%=      5-min Rain = 0
KHE1 172040Z 35004KT 12/M04 A3012 RMK A01 T01231041  RH  032%=      5-min Rain = 0
KHE1 172041Z 35003KT 12/M04 A3012 RMK A01 T01241043  RH  031%=      5-min Rain = 0
KHE1 172042Z 32002KT 12/M04 A3012 RMK A01 T01241043  RH  031%=      5-min Rain = 0
KHE1 172043Z 31005KT 13/M04 A3012 RMK A01 T01251038  RH  032%=      5-min Rain = 0
KHE1 172044Z 31006KT 13/M04 A3012 RMK A01 T01261040  RH  031%=      5-min Rain = 0
KHE1 172045Z 32004KT 13/M05 A3012 RMK A01 T01251046  RH  030%=      5-min Rain = 0
KHE1 172046Z 31003KT 12/M05 A3012 RMK A01 T01231047  RH  030%=      5-min Rain = 0
KHE1 172047Z 35004KT 12/M05 A3012 RMK A01 T01221047  RH  030%=      5-min Rain = 0
KHE1 172048Z 36004KT 12/M04 A3012 RMK A01 T01221041  RH  032%=      5-min Rain = 0
KHE1 172049Z 00004KT 12/M04 A3012 RMK A01 T01241041  RH  031%=      5-min Rain = 0
KHE1 172050Z 33006KT 13/M04 A3012 RMK A01 T01251041  RH  031%=      5-min Rain = 0
KHE1 172051Z 32005KT 13/M04 A3012 RMK A01 T01261042  RH  031%=      5-min Rain = 0
KHE1 172052Z 33004KT 13/M05 A3012 RMK A01 T01251046  RH  030%=      5-min Rain = 0
KHE1 172053Z 34004KT 12/M04 A3012 RMK A01 T01241043  RH  031%=      5-min Rain = 0
KHE1 172054Z 31004KT 13/M04 A3012 RMK A01 T01251041  RH  031%=      5-min Rain = 0
KHE1 172055Z 30004KT 13/M04 A3012 RMK A01 T01251042  RH  031%=      5-min Rain = 0
KHE1 172056Z 32006KT 13/M04 A3012 RMK A01 T01251039  RH  032%=      5-min Rain = 0
KHE1 172057Z 33005KT 13/M04 A3012 RMK A01 T01261041  RH  031%=      5-min Rain = 0
KHE1 172058Z 34005KT 13/M04 A3012 RMK A01 T01251043  RH  031%=      5-min Rain = 0
KHE1 172059Z 33006KT 12/M04 A3011 RMK A01 T01241044  RH  031%=      5-min Rain = 0
KHE1 172100Z 32004KT 12/M05 A3011 RMK A01 T01241045  RH  030%=      5-min Rain = 0
KHE1 172101Z 31003KT 12/M04 A3011 RMK A01 T01241044  RH  031%=      5-min Rain = 0
KHE1 172102Z 32004KT 12/M04 A3011 RMK A01 T01241036  RH  033%=      5-min Rain = 0
KHE1 172103Z 35004KT 13/M04 A3011 RMK A01 T01261041  RH  031%=      5-min Rain = 0
KHE1 172104Z 32005KT 13/M05 A3011 RMK A01 T01261045  RH  030%=      5-min Rain = 0
KHE1 172105Z 32005KT 13/M05 A3011 RMK A01 T01261050  RH  029%=      5-min Rain = 0
KHE1 172106Z 33006KT 13/M04 A3011 RMK A01 T01251043  RH  031%=      5-min Rain = 0
KHE1 172107Z 34006KT 13/M04 A3011 RMK A01 T01271040  RH  031%=      5-min Rain = 0
KHE1 172108Z 34004KT 13/M04 A3011 RMK A01 T01271042  RH  030%=      5-min Rain = 0
KHE1 172109Z 32004KT 13/M04 A3011 RMK A01 T01281044  RH  030%=      5-min Rain = 0
KHE1 172110Z 31004KT 13/M05 A3011 RMK A01 T01261047  RH  029%=      5-min Rain = 0
KHE1 172111Z 31005KT 13/M04 A3011 RMK A01 T01261044  RH  030%=      5-min Rain = 0
KHE1 172112Z 35004KT 13/M04 A3011 RMK A01 T01261041  RH  031%=      5-min Rain = 0
KHE1 172113Z 31004KT 13/M04 A3011 RMK A01 T01261043  RH  031%=      5-min Rain = 0
KHE1 172114Z 31004KT 13/M05 A3012 RMK A01 T01271047  RH  030%=      5-min Rain = 0
KHE1 172115Z 34005KT 13/M04 A3012 RMK A01 T01271039  RH  031%=      5-min Rain = 0
KHE1 172116Z 32004KT 13/M04 A3012 RMK A01 T01281039  RH  031%=      5-min Rain = 0
KHE1 172117Z 29003KT 13/M04 A3011 RMK A01 T01291040  RH  031%=      5-min Rain = 0
KHE1 172118Z 30004KT 13/M04 A3011 RMK A01 T01291044  RH  030%=      5-min Rain = 0
KHE1 172119Z 31004KT 13/M04 A3011 RMK A01 T01281044  RH  030%=      5-min Rain = 0
KHE1 172120Z 30004KT 13/M04 A3011 RMK A01 T01271044  RH  030%=      5-min Rain = 0
KHE1 172121Z 31004KT 13/M04 A3011 RMK A01 T01261044  RH  030%=      5-min Rain = 0
KHE1 172122Z 32008KT 13/M04 A3012 RMK A01 T01261044  RH  030%=      5-min Rain = 0
KHE1 172123Z 32007KT 13/M04 A3012 RMK A01 T01261044  RH  030%=      5-min Rain = 0
KHE1 172124Z 31006KT 13/M05 A3012 RMK A01 T01251049  RH  029%=      5-min Rain = 0
KHE1 172125Z 31006KT 13/M05 A3012 RMK A01 T01251048  RH  030%=      5-min Rain = 0
KHE1 172126Z 30004KT 13/M04 A3012 RMK A01 T01251043  RH  031%=      5-min Rain = 0
KHE1 172127Z 30004KT 13/M04 A3012 RMK A01 T01251044  RH  031%=      5-min Rain = 0
KHE1 172128Z 32004KT 13/M05 A3012 RMK A01 T01251047  RH  030%=      5-min Rain = 0
KHE1 172129Z 30003KT 13/M05 A3012 RMK A01 T01251053  RH  029%=      5-min Rain = 0
KHE1 172130Z 31003KT 12/M05 A3012 RMK A01 T01241048  RH  030%=      5-min Rain = 0
KHE1 172131Z 32003KT 12/M05 A3012 RMK A01 T01241051  RH  029%=      5-min Rain = 0
KHE1 172132Z 31003KT 12/M05 A3012 RMK A01 T01241051  RH  029%=      5-min Rain = 0
KHE1 172133Z 32002KT 12/M05 A3012 RMK A01 T01241047  RH  030%=      5-min Rain = 0
KHE1 172134Z 30001KT 13/M04 A3012 RMK A01 T01261042  RH  031%=      5-min Rain = 0
KHE1 172135Z 36001KT 13/M05 A3011 RMK A01 T01271053  RH  028%=      5-min Rain = 0
KHE1 172136Z 35002KT 13/M05 A3011 RMK A01 T01281054  RH  028%=      5-min Rain = 0
KHE1 172137Z 01001KT 13/M05 A3011 RMK A01 T01281052  RH  028%=      5-min Rain = 0
KHE1 172138Z 36003KT 13/M05 A3011 RMK A01 T01291045  RH  030%=      5-min Rain = 0
KHE1 172139Z 35006KT 13/M05 A3011 RMK A01 T01291045  RH  029%=      5-min Rain = 0
KHE1 172140Z 32005KT 13/M04 A3011 RMK A01 T01291044  RH  030%=      5-min Rain = 0
KHE1 172141Z 32005KT 13/M05 A3011 RMK A01 T01291047  RH  029%=      5-min Rain = 0
KHE1 172142Z 31005KT 13/M05 A3011 RMK A01 T01281049  RH  029%=      5-min Rain = 0
KHE1 172143Z 31004KT 13/M05 A3011 RMK A01 T01271049  RH  029%=      5-min Rain = 0
KHE1 172144Z 30004KT 13/M05 A3011 RMK A01 T01271049  RH  029%=      5-min Rain = 0
KHE1 172145Z 31002KT 13/M05 A3011 RMK A01 T01271053  RH  028%=      5-min Rain = 0
KHE1 172146Z 35004KT 13/M04 A3011 RMK A01 T01271043  RH  030%=      5-min Rain = 0
KHE1 172147Z 36004KT 13/M05 A3011 RMK A01 T01281045  RH  030%=      5-min Rain = 0
KHE1 172148Z 00002KT 13/M05 A3011 RMK A01 T01281049  RH  029%=      5-min Rain = 0
KHE1 172149Z 36003KT 13/M05 A3011 RMK A01 T01281049  RH  029%=      5-min Rain = 0
KHE1 172150Z 34003KT 13/M05 A3011 RMK A01 T01281047  RH  029%=      5-min Rain = 0
KHE1 172151Z 34002KT 13/M05 A3011 RMK A01 T01281049  RH  029%=      5-min Rain = 0
KHE1 172152Z 34003KT 13/M05 A3011 RMK A01 T01271046  RH  030%=      5-min Rain = 0
KHE1 172153Z 34003KT 13/M05 A3011 RMK A01 T01271047  RH  029%=      5-min Rain = 0
KHE1 172154Z 34001KT 13/M05 A3011 RMK A01 T01281050  RH  029%=      5-min Rain = 0
KHE1 172155Z 30002KT 13/M05 A3011 RMK A01 T01281052  RH  028%=      5-min Rain = 0
KHE1 172156Z 29002KT 13/M05 A3011 RMK A01 T01281053  RH  028%=      5-min Rain = 0
KHE1 172157Z 25001KT 13/M05 A3011 RMK A01 T01281051  RH  028%=      5-min Rain = 0
KHE1 172158Z 29002KT 13/M05 A3011 RMK A01 T01291050  RH  028%=      5-min Rain = 0
KHE1 172159Z 28003KT 13/M05 A3011 RMK A01 T01311052  RH  028%=      5-min Rain = 0
KHE1 172200Z 30003KT 13/M05 A3011 RMK A01 T01301054  RH  027%=      5-min Rain = 0
KHE1 172201Z 00003KT 13/M05 A3011 RMK A01 T01291046  RH  029%=      5-min Rain = 0
KHE1 172202Z 01001KT 13/M05 A3011 RMK A01 T01291054  RH  028%=      5-min Rain = 0
KHE1 172203Z 01000KT 13/M06 A3011 RMK A01 T01281055  RH  028%=      5-min Rain = 0
KHE1 172204Z 01000KT 13/M05 A3011 RMK A01 T01281051  RH  028%=      5-min Rain = 0
KHE1 172205Z 31000KT 13/M05 A3011 RMK A01 T01301050  RH  028%=      5-min Rain = 0
KHE1 172206Z 29001KT 13/M05 A3011 RMK A01 T01311052  RH  028%=      5-min Rain = 0
KHE1 172207Z 34003KT 13/M05 A3011 RMK A01 T01311050  RH  028%=      5-min Rain = 0
KHE1 172208Z 34005KT 13/M05 A3011 RMK A01 T01311050  RH  028%=      5-min Rain = 0
KHE1 172209Z 35004KT 13/M06 A3011 RMK A01 T01291059  RH  026%=      5-min Rain = 0
KHE1 172210Z 35003KT 13/M05 A3011 RMK A01 T01281052  RH  028%=      5-min Rain = 0
KHE1 172211Z 01004KT 13/M05 A3011 RMK A01 T01281051  RH  028%=      5-min Rain = 0
KHE1 172212Z 35003KT 13/M05 A3011 RMK A01 T01291053  RH  028%=      5-min Rain = 0
KHE1 172213Z 33002KT 13/M06 A301 RMK A01 T01291055  RH  027%=      5-min Rain = 0
KHE1 172214Z 34003KT 13/M06 A301 RMK A01 T01291058  RH  027%=      5-min Rain = 0
KHE1 172215Z 33003KT 13/M05 A3011 RMK A01 T01291052  RH  028%=      5-min Rain = 0
KHE1 172216Z 35003KT 13/M05 A3011 RMK A01 T01301050  RH  028%=      5-min Rain = 0
KHE1 172217Z 33004KT 13/M05 A3011 RMK A01 T01311054  RH  027%=      5-min Rain = 0
KHE1 172218Z 32004KT 13/M05 A301 RMK A01 T01311047  RH  029%=      5-min Rain = 0
KHE1 172219Z 30003KT 13/M05 A301 RMK A01 T01311054  RH  027%=      5-min Rain = 0
KHE1 172220Z 29002KT 13/M06 A301 RMK A01 T01301059  RH  026%=      5-min Rain = 0
KHE1 172221Z 29002KT 13/M06 A301 RMK A01 T01301058  RH  027%=      5-min Rain = 0
KHE1 172222Z 30002KT 13/M06 A301 RMK A01 T01301056  RH  027%=      5-min Rain = 0
KHE1 172223Z 33002KT 13/M06 A301 RMK A01 T01301056  RH  027%=      5-min Rain = 0
KHE1 172224Z 01002KT 13/M06 A301 RMK A01 T01301056  RH  027%=      5-min Rain = 0
KHE1 172225Z 36002KT 13/M05 A301 RMK A01 T01301049  RH  028%=      5-min Rain = 0
KHE1 172226Z 04004KT 13/M05 A301 RMK A01 T01301051  RH  028%=      5-min Rain = 0
KHE1 172227Z 04003KT 13/M05 A301 RMK A01 T01301050  RH  028%=      5-min Rain = 0
KHE1 172228Z 03002KT 13/M05 A301 RMK A01 T01301050  RH  028%=      5-min Rain = 0
KHE1 172229Z 04001KT 13/M06 A301 RMK A01 T01291059  RH  027%=      5-min Rain = 0
KHE1 172230Z 05003KT 13/M05 A301 RMK A01 T01291051  RH  028%=      5-min Rain = 0
KHE1 172231Z 01002KT 13/M05 A301 RMK A01 T01291049  RH  029%=      5-min Rain = 0
KHE1 172232Z 34004KT 13/M05 A301 RMK A01 T01291048  RH  029%=      5-min Rain = 0
KHE1 172233Z 34004KT 13/M06 A301 RMK A01 T01291058  RH  027%=      5-min Rain = 0
KHE1 172234Z 33004KT 13/M06 A301 RMK A01 T01281057  RH  027%=      5-min Rain = 0
KHE1 172235Z 35004KT 13/M05 A301 RMK A01 T01281054  RH  028%=      5-min Rain = 0
KHE1 172236Z 00003KT 13/M06 A301 RMK A01 T01271055  RH  028%=      5-min Rain = 0
KHE1 172237Z 32003KT 13/M05 A301 RMK A01 T01281052  RH  028%=      5-min Rain = 0
KHE1 172238Z 32002KT 13/M05 A301 RMK A01 T01281053  RH  028%=      5-min Rain = 0
KHE1 172239Z 34002KT 13/M05 A301 RMK A01 T01281050  RH  028%=      5-min Rain = 0
KHE1 172240Z 33002KT 13/M06 A301 RMK A01 T01291055  RH  027%=      5-min Rain = 0
KHE1 172241Z 33003KT 13/M05 A301 RMK A01 T01291047  RH  029%=      5-min Rain = 0
KHE1 172242Z 00002KT 13/M06 A301 RMK A01 T01281058  RH  027%=      5-min Rain = 0
KHE1 172243Z 02000KT 13/M06 A301 RMK A01 T01271060  RH  027%=      5-min Rain = 0
KHE1 172244Z 00000KT 13/M06 A301 RMK A01 T01271055  RH  028%=      5-min Rain = 0
KHE1 172245Z 00000KT 13/M06 A301 RMK A01 T01281059  RH  027%=      5-min Rain = 0
KHE1 172246Z 00000KT 13/M05 A301 RMK A01 T01301054  RH  027%=      5-min Rain = 0
KHE1 172247Z 00000KT 13/M06 A301 RMK A01 T01311058  RH  026%=      5-min Rain = 0
KHE1 172248Z 00000KT 13/M06 A301 RMK A01 T01321060  RH  026%=      5-min Rain = 0
KHE1 172249Z 29000KT 13/M06 A301 RMK A01 T01321059  RH  026%=      5-min Rain = 0
KHE1 172250Z 29001KT 13/M05 A301 RMK A01 T01331053  RH  027%=      5-min Rain = 0
KHE1 172251Z 30002KT 13/M06 A301 RMK A01 T01341056  RH  026%=      5-min Rain = 0
KHE1 172252Z 31001KT 13/M06 A301 RMK A01 T01321059  RH  026%=      5-min Rain = 0
KHE1 172253Z 30000KT 13/M05 A301 RMK A01 T01311049  RH  028%=      5-min Rain = 0
KHE1 172254Z 03001KT 13/M05 A301 RMK A01 T01311051  RH  028%=      5-min Rain = 0
KHE1 172255Z 03002KT 13/M05 A301 RMK A01 T01311051  RH  028%=      5-min Rain = 0
KHE1 172256Z 04003KT 13/M05 A301 RMK A01 T01301050  RH  028%=      5-min Rain = 0
KHE1 172257Z 03003KT 13/M05 A301 RMK A01 T01281048  RH  029%=      5-min Rain = 0
KHE1 172258Z 02003KT 13/M05 A301 RMK A01 T01261048  RH  029%=      5-min Rain = 0
KHE1 172259Z 03003KT 13/M05 A301 RMK A01 T01251051  RH  029%=      5-min Rain = 0
KHE1 172300Z 03003KT 13/M04 A301 RMK A01 T01251043  RH  031%=      5-min Rain = 0
KHE1 172301Z 04003KT 12/M05 A301 RMK A01 T01241048  RH  030%=      5-min Rain = 0
KHE1 172302Z 04002KT 12/M04 A301 RMK A01 T01241043  RH  031%=      5-min Rain = 0
KHE1 172303Z 04002KT 12/M05 A301 RMK A01 T01231047  RH  030%=      5-min Rain = 0
KHE1 172304Z 04002KT 12/M05 A301 RMK A01 T01231049  RH  030%=      5-min Rain = 0
KHE1 172305Z 03002KT 12/M05 A301 RMK A01 T01221051  RH  029%=      5-min Rain = 0
KHE1 172306Z 03002KT 12/M04 A301 RMK A01 T01221043  RH  031%=      5-min Rain = 0
KHE1 172307Z 03002KT 12/M05 A301 RMK A01 T01221046  RH  031%=      5-min Rain = 0
KHE1 172308Z 02001KT 12/M05 A301 RMK A01 T01211049  RH  030%=      5-min Rain = 0
KHE1 172309Z 02001KT 12/M05 A3009 RMK A01 T01211048  RH  030%=      5-min Rain = 0
KHE1 172310Z 02001KT 12/M05 A3009 RMK A01 T01221046  RH  031%=      5-min Rain = 0
KHE1 172311Z 02001KT 12/M05 A3009 RMK A01 T01221048  RH  030%=      5-min Rain = 0
KHE1 172312Z 02001KT 12/M05 A3009 RMK A01 T01221048  RH  030%=      5-min Rain = 0
KHE1 172313Z 02001KT 12/M05 A3009 RMK A01 T01221050  RH  030%=      5-min Rain = 0
KHE1 172314Z 03000KT 12/M05 A3009 RMK A01 T01221051  RH  029%=      5-min Rain = 0
KHE1 172315Z 00000KT 12/M05 A3009 RMK A01 T01221049  RH  030%=      5-min Rain = 0
KHE1 172316Z 00000KT 12/M05 A3009 RMK A01 T01221052  RH  029%=      5-min Rain = 0
KHE1 172317Z 00000KT 12/M05 A3009 RMK A01 T01231054  RH  029%=      5-min Rain = 0
KHE1 172318Z 00000KT 12/M06 A3009 RMK A01 T01221056  RH  028%=      5-min Rain = 0
KHE1 172319Z 00000KT 12/M06 A3009 RMK A01 T01231055  RH  028%=      5-min Rain = 0
KHE1 172320Z 00000KT 12/M05 A3009 RMK A01 T01231051  RH  029%=      5-min Rain = 0
KHE1 172321Z 00000KT 12/M05 A3009 RMK A01 T01241049  RH  030%=      5-min Rain = 0
KHE1 172322Z 00000KT 13/M05 A3009 RMK A01 T01251052  RH  029%=      5-min Rain = 0
KHE1 172323Z 00000KT 13/M06 A3009 RMK A01 T01251055  RH  028%=      5-min Rain = 0
KHE1 172324Z 00000KT 13/M06 A3009 RMK A01 T01251057  RH  028%=      5-min Rain = 0
KHE1 172325Z 00000KT 13/M06 A3009 RMK A01 T01251058  RH  027%=      5-min Rain = 0
KHE1 172326Z 00000KT 13/M06 A3009 RMK A01 T01251058  RH  027%=      5-min Rain = 0
KHE1 172327Z 17000KT 12/M06 A3009 RMK A01 T01241058  RH  027%=      5-min Rain = 0
KHE1 172328Z 17002KT 12/M05 A3009 RMK A01 T01221053  RH  029%=      5-min Rain = 0
KHE1 172329Z 18003KT 12/M05 A3009 RMK A01 T01191048  RH  031%=      5-min Rain = 0
KHE1 172330Z 18004KT 12/M04 A3009 RMK A01 T01181044  RH  032%=      5-min Rain = 0
KHE1 172331Z 18004KT 12/M04 A3009 RMK A01 T01151040  RH  034%=      5-min Rain = 0
KHE1 172332Z 18004KT 11/M04 A3009 RMK A01 T01111039  RH  034%=      5-min Rain = 0
KHE1 172333Z 18004KT 11/M04 A3009 RMK A01 T01091043  RH  034%=      5-min Rain = 0
KHE1 172334Z 18004KT 11/M04 A3009 RMK A01 T01091040  RH  035%=      5-min Rain = 0
KHE1 172335Z 18004KT 11/M04 A3009 RMK A01 T01071039  RH  036%=      5-min Rain = 0
KHE1 172336Z 18004KT 11/M04 A3009 RMK A01 T01061039  RH  036%=      5-min Rain = 0
KHE1 172337Z 18004KT 11/M04 A3009 RMK A01 T01051041  RH  035%=      5-min Rain = 0
KHE1 172338Z 18004KT 11/M04 A3009 RMK A01 T01051040  RH  036%=      5-min Rain = 0
KHE1 172339Z 18004KT 10/M04 A3009 RMK A01 T01021039  RH  037%=      5-min Rain = 0
KHE1 172340Z 18004KT 10/M04 A3009 RMK A01 T01021040  RH  036%=      5-min Rain = 0
KHE1 172341Z 18004KT 10/M04 A3009 RMK A01 T01021042  RH  036%=      5-min Rain = 0
KHE1 172342Z 17004KT 10/M05 A3009 RMK A01 T01021047  RH  035%=      5-min Rain = 0
KHE1 172343Z 18004KT 10/M05 A3009 RMK A01 T01031051  RH  034%=      5-min Rain = 0
KHE1 172344Z 18004KT 10/M05 A3009 RMK A01 T01031052  RH  033%=      5-min Rain = 0
KHE1 172345Z 18004KT 10/M05 A3009 RMK A01 T01031049  RH  034%=      5-min Rain = 0
KHE1 172346Z 18004KT 10/M05 A3009 RMK A01 T01011046  RH  035%=      5-min Rain = 0
KHE1 172347Z 18004KT 10/M05 A3009 RMK A01 T01001046  RH  035%=      5-min Rain = 0
KHE1 172348Z 18004KT 10/M05 A3009 RMK A01 T01001048  RH  035%=      5-min Rain = 0
KHE1 172349Z 18004KT 10/M05 A3009 RMK A01 T01011053  RH  033%=      5-min Rain = 0
KHE1 172350Z 18004KT 10/M06 A3009 RMK A01 T01031055  RH  032%=      5-min Rain = 0
KHE1 172351Z 18005KT 10/M05 A3009 RMK A01 T01031053  RH  033%=      5-min Rain = 0
KHE1 172352Z 19005KT 10/M05 A3009 RMK A01 T01021049  RH  034%=      5-min Rain = 0
KHE1 172353Z 19005KT 10/M05 A3009 RMK A01 T00981045  RH  036%=      5-min Rain = 0
KHE1 172354Z 18005KT 09/M04 A3009 RMK A01 T00941041  RH  038%=      5-min Rain = 0
KHE1 172355Z 18005KT 09/M04 A3009 RMK A01 T00921040  RH  039%=      5-min Rain = 0
KHE1 172356Z 18005KT 09/M04 A3009 RMK A01 T00911041  RH  039%=      5-min Rain = 0
KHE1 172357Z 18005KT 09/M04 A3009 RMK A01 T00921043  RH  038%=      5-min Rain = 0
KHE1 172358Z 18005KT 09/M04 A3009 RMK A01 T00931043  RH  038%=      5-min Rain = 0
KHE1 172359Z 18005KT 09/M04 A3009 RMK A01 T00931043  RH  038%=      5-min Rain = 0
KHE1 180000Z 18005KT 09/M05 A3009 RMK A01 T00921046  RH  037%=      5-min Rain = 0
KHE1 180001Z 18004KT 09/M05 A3009 RMK A01 T00931049  RH  036%=      5-min Rain = 0
KHE1 180002Z 18004KT 10/M05 A3009 RMK A01 T00961051  RH  035%=      5-min Rain = 0
KHE1 180003Z 18004KT 10/M05 A3009 RMK A01 T00981053  RH  034%=      5-min Rain = 0
KHE1 180004Z 18004KT 10/M05 A3009 RMK A01 T00991053  RH  034%=      5-min Rain = 0
KHE1 180005Z 18005KT 10/M05 A3009 RMK A01 T01001051  RH  034%=      5-min Rain = 0
KHE1 180006Z 17005KT 10/M05 A3009 RMK A01 T00991051  RH  034%=      5-min Rain = 0
KHE1 180007Z 17004KT 10/M05 A3009 RMK A01 T00971050  RH  035%=      5-min Rain = 0
KHE1 180008Z 17004KT 10/M05 A3009 RMK A01 T00961053  RH  035%=      5-min Rain = 0
KHE1 180009Z 17004KT 10/M05 A3009 RMK A01 T00971054  RH  034%=      5-min Rain = 0
KHE1 180010Z 17004KT 10/M06 A3009 RMK A01 T00991055  RH  033%=      5-min Rain = 0
KHE1 180011Z 17005KT 10/M05 A3009 RMK A01 T01001054  RH  033%=      5-min Rain = 0
KHE1 180012Z 17005KT 10/M05 A3009 RMK A01 T00991052  RH  034%=      5-min Rain = 0
KHE1 180013Z 17005KT 10/M05 A3009 RMK A01 T00971052  RH  035%=      5-min Rain = 0
KHE1 180014Z 17005KT 10/M05 A3009 RMK A01 T00951051  RH  035%=      5-min Rain = 0
KHE1 180015Z 17005KT 09/M05 A3009 RMK A01 T00931049  RH  036%=      5-min Rain = 0
KHE1 180016Z 17005KT 09/M05 A3009 RMK A01 T00891047  RH  038%=      5-min Rain = 0
KHE1 180017Z 17005KT 08/M05 A3009 RMK A01 T00841045  RH  040%=      5-min Rain = 0
KHE1 180018Z 17006KT 08/M04 A3009 RMK A01 T00811042  RH  042%=      5-min Rain = 0
KHE1 180019Z 17006KT 08/M04 A3009 RMK A01 T00781041  RH  043%=      5-min Rain = 0
KHE1 180020Z 17005KT 08/M04 A3009 RMK A01 T00771042  RH  043%=      5-min Rain = 0
KHE1 180021Z 17005KT 08/M05 A3009 RMK A01 T00801045  RH  041%=      5-min Rain = 0
KHE1 180022Z 17006KT 08/M05 A3009 RMK A01 T00841045  RH  040%=      5-min Rain = 0
KHE1 180023Z 17006KT 09/M05 A3009 RMK A01 T00871046  RH  039%=      5-min Rain = 0
KHE1 180024Z 17005KT 09/M05 A3009 RMK A01 T00901047  RH  038%=      5-min Rain = 0
KHE1 180025Z 17005KT 09/M05 A3009 RMK A01 T00911048  RH  037%=      5-min Rain = 0
KHE1 180026Z 17005KT 09/M05 A3009 RMK A01 T00911047  RH  038%=      5-min Rain = 0
KHE1 180027Z 17006KT 09/M04 A3009 RMK A01 T00881044  RH  039%=      5-min Rain = 0
KHE1 180028Z 18006KT 08/M04 A3009 RMK A01 T00841042  RH  041%=      5-min Rain = 0
KHE1 180029Z 17005KT 08/M04 A3009 RMK A01 T00821041  RH  042%=      5-min Rain = 0
KHE1 180030Z 18006KT 08/M04 A3009 RMK A01 T00801040  RH  042%=      5-min Rain = 0
KHE1 180031Z 18006KT 08/M04 A3009 RMK A01 T00781038  RH  043%=      5-min Rain = 0
KHE1 180032Z 17006KT 08/M04 A3009 RMK A01 T00761037  RH  045%=      5-min Rain = 0
KHE1 180033Z 17006KT 07/M04 A3009 RMK A01 T00741037  RH  045%=      5-min Rain = 0
KHE1 180034Z 17006KT 07/M04 A3009 RMK A01 T00731037  RH  045%=      5-min Rain = 0
KHE1 180035Z 17006KT 07/M04 A3009 RMK A01 T00741036  RH  046%=      5-min Rain = 0
KHE1 180036Z 17006KT 07/M04 A3009 RMK A01 T00741036  RH  046%=      5-min Rain = 0
KHE1 180037Z 17006KT 08/M04 A3009 RMK A01 T00761037  RH  045%=      5-min Rain = 0
KHE1 180038Z 17007KT 08/M04 A3009 RMK A01 T00771037  RH  044%=      5-min Rain = 0
KHE1 180039Z 17007KT 08/M04 A3009 RMK A01 T00771037  RH  044%=      5-min Rain = 0
KHE1 180040Z 17007KT 08/M04 A3009 RMK A01 T00761036  RH  045%=      5-min Rain = 0
KHE1 180041Z 17007KT 07/M04 A3009 RMK A01 T00741035  RH  046%=      5-min Rain = 0
KHE1 180042Z 17007KT 07/M04 A3009 RMK A01 T00721035  RH  046%=      5-min Rain = 0
KHE1 180043Z 17007KT 07/M04 A3009 RMK A01 T00721035  RH  047%=      5-min Rain = 0
KHE1 180044Z 17006KT 07/M04 A3009 RMK A01 T00721036  RH  046%=      5-min Rain = 0
KHE1 180045Z 17006KT 07/M04 A3009 RMK A01 T00721037  RH  046%=      5-min Rain = 0
KHE1 180046Z 18006KT 07/M04 A3009 RMK A01 T00731036  RH  046%=      5-min Rain = 0
KHE1 180047Z 18006KT 07/M04 A3009 RMK A01 T00731036  RH  046%=      5-min Rain = 0
KHE1 180048Z 18006KT 07/M04 A3009 RMK A01 T00721036  RH  046%=      5-min Rain = 0
KHE1 180049Z 18006KT 07/M04 A3009 RMK A01 T00721037  RH  046%=      5-min Rain = 0
KHE1 180050Z 18006KT 07/M04 A301 RMK A01 T00721037  RH  046%=      5-min Rain = 0
KHE1 180051Z 18006KT 07/M04 A301 RMK A01 T00731038  RH  045%=      5-min Rain = 0
KHE1 180052Z 18006KT 07/M04 A301 RMK A01 T00731039  RH  045%=      5-min Rain = 0
KHE1 180053Z 18006KT 07/M04 A301 RMK A01 T00741039  RH  044%=      5-min Rain = 0
KHE1 180054Z 17006KT 07/M04 A301 RMK A01 T00741039  RH  044%=      5-min Rain = 0
KHE1 180055Z 17007KT 08/M04 A301 RMK A01 T00751040  RH  044%=      5-min Rain = 0
KHE1 180056Z 17007KT 08/M04 A301 RMK A01 T00751040  RH  044%=      5-min Rain = 0
KHE1 180057Z 17007KT 08/M04 A301 RMK A01 T00751039  RH  044%=      5-min Rain = 0
KHE1 180058Z 17007KT 07/M04 A301 RMK A01 T00731037  RH  045%=      5-min Rain = 0
KHE1 180059Z 17007KT 07/M04 A301 RMK A01 T00721036  RH  046%=      5-min Rain = 0
KHE1 180100Z 17007KT 07/M04 A301 RMK A01 T00731036  RH  046%=      5-min Rain = 0
KHE1 180101Z 17007KT 07/M04 A301 RMK A01 T00731037  RH  045%=      5-min Rain = 0
KHE1 180102Z 17006KT 07/M04 A301 RMK A01 T00741037  RH  045%=      5-min Rain = 0
KHE1 180103Z 17006KT 07/M04 A301 RMK A01 T00741037  RH  045%=      5-min Rain = 0
KHE1 180104Z 17006KT 07/M04 A301 RMK A01 T00741037  RH  045%=      5-min Rain = 0
KHE1 180105Z 17006KT 07/M04 A301 RMK A01 T00731037  RH  046%=      5-min Rain = 0
KHE1 180106Z 17006KT 07/M04 A301 RMK A01 T00721037  RH  046%=      5-min Rain = 0
KHE1 180107Z 17006KT 07/M04 A301 RMK A01 T00721038  RH  046%=      5-min Rain = 0
KHE1 180108Z 16006KT 07/M04 A301 RMK A01 T00731039  RH  045%=      5-min Rain = 0
KHE1 180109Z 16006KT 08/M04 A301 RMK A01 T00751040  RH  044%=      5-min Rain = 0
KHE1 180110Z 16006KT 08/M04 A301 RMK A01 T00761041  RH  043%=      5-min Rain = 0
KHE1 180111Z 17006KT 08/M04 A301 RMK A01 T00771040  RH  043%=      5-min Rain = 0
KHE1 180112Z 17006KT 08/M04 A301 RMK A01 T00761039  RH  044%=      5-min Rain = 0
KHE1 180113Z 17006KT 08/M04 A301 RMK A01 T00751040  RH  044%=      5-min Rain = 0
KHE1 180114Z 17007KT 07/M04 A301 RMK A01 T00741040  RH  044%=      5-min Rain = 0
KHE1 180115Z 17007KT 07/M04 A301 RMK A01 T00741039  RH  045%=      5-min Rain = 0
KHE1 180116Z 17007KT 07/M04 A301 RMK A01 T00721040  RH  045%=      5-min Rain = 0
KHE1 180117Z 17007KT 07/M04 A301 RMK A01 T00711040  RH  045%=      5-min Rain = 0
KHE1 180118Z 17007KT 07/M04 A301 RMK A01 T00721039  RH  045%=      5-min Rain = 0
KHE1 180119Z 17007KT 07/M04 A301 RMK A01 T00711039  RH  046%=      5-min Rain = 0
KHE1 180120Z 17008KT 07/M04 A301 RMK A01 T00691039  RH  046%=      5-min Rain = 0
KHE1 180121Z 17007KT 07/M04 A301 RMK A01 T00681038  RH  047%=      5-min Rain = 0
KHE1 180122Z 18007KT 07/M04 A301 RMK A01 T00671037  RH  048%=      5-min Rain = 0
KHE1 180123Z 18008KT 07/M04 A301 RMK A01 T00661036  RH  048%=      5-min Rain = 0
KHE1 180124Z 18008KT 07/M04 A301 RMK A01 T00661036  RH  048%=      5-min Rain = 0
KHE1 180125Z 18008KT 07/M04 A301 RMK A01 T00661036  RH  048%=      5-min Rain = 0
KHE1 180126Z 18008KT 06/M04 A301 RMK A01 T00641036  RH  049%=      5-min Rain = 0
KHE1 180127Z 18008KT 06/M04 A301 RMK A01 T00631036  RH  049%=      5-min Rain = 0
KHE1 180128Z 18008KT 06/M04 A301 RMK A01 T00621035  RH  050%=      5-min Rain = 0
KHE1 180129Z 18008KT 06/M04 A301 RMK A01 T00611035  RH  050%=      5-min Rain = 0
KHE1 180130Z 18008KT 06/M04 A301 RMK A01 T00611035  RH  050%=      5-min Rain = 0
KHE1 180131Z 18009KT 06/M04 A301 RMK A01 T00601035  RH  051%=      5-min Rain = 0
KHE1 180132Z 18009KT 06/M03 A301 RMK A01 T00591034  RH  051%=      5-min Rain = 0
KHE1 180133Z 18009KT 06/M03 A301 RMK A01 T00571034  RH  052%=      5-min Rain = 0
KHE1 180134Z 18009KT 06/M03 A301 RMK A01 T00561033  RH  053%=      5-min Rain = 0
KHE1 180135Z 18009KT 05/M03 A301 RMK A01 T00541033  RH  053%=      5-min Rain = 0
KHE1 180136Z 18009KT 05/M03 A301 RMK A01 T00531033  RH  054%=      5-min Rain = 0
KHE1 180137Z 18008KT 05/M03 A301 RMK A01 T00521034  RH  054%=      5-min Rain = 0
KHE1 180138Z 18008KT 05/M03 A301 RMK A01 T00531034  RH  054%=      5-min Rain = 0
KHE1 180139Z 18008KT 05/M03 A301 RMK A01 T00541034  RH  053%=      5-min Rain = 0
KHE1 180140Z 18008KT 05/M03 A301 RMK A01 T00541034  RH  053%=      5-min Rain = 0
KHE1 180141Z 18008KT 06/M03 A301 RMK A01 T00551034  RH  053%=      5-min Rain = 0
KHE1 180142Z 18008KT 06/M03 A301 RMK A01 T00551034  RH  053%=      5-min Rain = 0
KHE1 180143Z 18008KT 06/M03 A301 RMK A01 T00551034  RH  053%=      5-min Rain = 0
KHE1 180144Z 18009KT 06/M03 A301 RMK A01 T00551034  RH  053%=      5-min Rain = 0
KHE1 180145Z 18009KT 05/M03 A301 RMK A01 T00541034  RH  053%=      5-min Rain = 0
KHE1 180146Z 18009KT 05/M03 A3009 RMK A01 T00541034  RH  053%=      5-min Rain = 0
KHE1 180147Z 18009KT 05/M03 A3009 RMK A01 T00531034  RH  054%=      5-min Rain = 0
KHE1 180148Z 18009KT 05/M03 A3009 RMK A01 T00521034  RH  054%=      5-min Rain = 0
KHE1 180149Z 18009KT 05/M03 A3009 RMK A01 T00521033  RH  054%=      5-min Rain = 0
KHE1 180150Z 18009KT 05/M03 A3009 RMK A01 T00521032  RH  055%=      5-min Rain = 0
KHE1 180151Z 18010KT 05/M03 A3009 RMK A01 T00511032  RH  055%=      5-min Rain = 0
KHE1 180152Z 18010KT 05/M03 A3009 RMK A01 T00501032  RH  055%=      5-min Rain = 0
KHE1 180153Z 18010KT 05/M03 A3009 RMK A01 T00501033  RH  055%=      5-min Rain = 0
KHE1 180154Z 18010KT 05/M03 A3009 RMK A01 T00501033  RH  055%=      5-min Rain = 0
KHE1 180155Z 18010KT 05/M03 A3009 RMK A01 T00501032  RH  055%=      5-min Rain = 0
KHE1 180156Z 18010KT 05/M03 A3009 RMK A01 T00501032  RH  055%=      5-min Rain = 0
KHE1 180157Z 19010KT 05/M03 A3009 RMK A01 T00491032  RH  056%=      5-min Rain = 0
KHE1 180158Z 18010KT 05/M03 A3009 RMK A01 T00481031  RH  056%=      5-min Rain = 0
KHE1 180159Z 18009KT 05/M03 A3009 RMK A01 T00471031  RH  057%=      5-min Rain = 0
KHE1 180200Z 18009KT 05/M03 A3009 RMK A01 T00461031  RH  058%=      5-min Rain = 0
KHE1 180201Z 18010KT 05/M03 A3009 RMK A01 T00451030  RH  058%=      5-min Rain = 0
KHE1 180202Z 18010KT 04/M03 A3009 RMK A01 T00441030  RH  059%=      5-min Rain = 0
KHE1 180203Z 18010KT 04/M03 A3009 RMK A01 T00441029  RH  059%=      5-min Rain = 0
KHE1 180204Z 18010KT 04/M03 A3009 RMK A01 T00431029  RH  059%=      5-min Rain = 0
KHE1 180205Z 18010KT 04/M03 A3009 RMK A01 T00421029  RH  060%=      5-min Rain = 0
KHE1 180206Z 18010KT 04/M03 A3009 RMK A01 T00431030  RH  059%=      5-min Rain = 0
KHE1 180207Z 18010KT 04/M03 A3009 RMK A01 T00441030  RH  059%=      5-min Rain = 0
KHE1 180208Z 18010KT 04/M03 A3009 RMK A01 T00441030  RH  059%=      5-min Rain = 0
KHE1 180209Z 18010KT 05/M03 A3009 RMK A01 T00451029  RH  059%=      5-min Rain = 0
KHE1 180210Z 18010KT 04/M03 A3009 RMK A01 T00441029  RH  059%=      5-min Rain = 0
KHE1 180211Z 18010KT 04/M03 A3009 RMK A01 T00441029  RH  059%=      5-min Rain = 0
KHE1 180212Z 18010KT 04/M03 A3009 RMK A01 T00431029  RH  059%=      5-min Rain = 0
KHE1 180213Z 19010KT 04/M03 A3009 RMK A01 T00431029  RH  060%=      5-min Rain = 0
KHE1 180214Z 19010KT 04/M03 A3009 RMK A01 T00431029  RH  060%=      5-min Rain = 0
KHE1 180215Z 18010KT 04/M03 A3009 RMK A01 T00431029  RH  060%=      5-min Rain = 0
KHE1 180216Z 18009KT 04/M03 A3009 RMK A01 T00431029  RH  060%=      5-min Rain = 0
KHE1 180217Z 18009KT 04/M03 A3009 RMK A01 T00431029  RH  059%=      5-min Rain = 0
KHE1 180218Z 18009KT 04/M03 A3009 RMK A01 T00431030  RH  059%=      5-min Rain = 0
KHE1 180219Z 18009KT 05/M03 A3009 RMK A01 T00451030  RH  058%=      5-min Rain = 0
KHE1 180220Z 18009KT 05/M03 A3009 RMK A01 T00451031  RH  058%=      5-min Rain = 0
KHE1 180221Z 18009KT 05/M03 A3009 RMK A01 T00461031  RH  057%=      5-min Rain = 0
KHE1 180222Z 18010KT 05/M03 A3009 RMK A01 T00471031  RH  057%=      5-min Rain = 0
KHE1 180223Z 18009KT 05/M03 A3009 RMK A01 T00481031  RH  057%=      5-min Rain = 0
KHE1 180224Z 18009KT 05/M03 A3009 RMK A01 T00481031  RH  056%=      5-min Rain = 0
KHE1 180225Z 18009KT 05/M03 A3009 RMK A01 T00491031  RH  056%=      5-min Rain = 0
KHE1 180226Z 18009KT 05/M03 A3009 RMK A01 T00491030  RH  056%=      5-min Rain = 0
KHE1 180227Z 18009KT 05/M03 A3009 RMK A01 T00481030  RH  057%=      5-min Rain = 0
KHE1 180228Z 18009KT 05/M03 A3009 RMK A01 T00461030  RH  058%=      5-min Rain = 0
KHE1 180229Z 18010KT 04/M03 A3009 RMK A01 T00441030  RH  059%=      5-min Rain = 0
KHE1 180230Z 18010KT 04/M03 A3009 RMK A01 T00421029  RH  060%=      5-min Rain = 0
KHE1 180231Z 18010KT 04/M03 A3009 RMK A01 T00411029  RH  060%=      5-min Rain = 0
KHE1 180232Z 18010KT 04/M03 A3009 RMK A01 T00411029  RH  060%=      5-min Rain = 0
KHE1 180233Z 18010KT 04/M03 A3009 RMK A01 T00411029  RH  060%=      5-min Rain = 0
KHE1 180234Z 18010KT 04/M03 A3009 RMK A01 T00401030  RH  061%=      5-min Rain = 0
KHE1 180235Z 18010KT 04/M03 A3009 RMK A01 T00391030  RH  061%=      5-min Rain = 0
KHE1 180236Z 18010KT 04/M03 A3009 RMK A01 T00391030  RH  061%=      5-min Rain = 0
KHE1 180237Z 18010KT 04/M03 A3009 RMK A01 T00391030  RH  061%=      5-min Rain = 0
KHE1 180238Z 18010KT 04/M03 A3009 RMK A01 T00391030  RH  061%=      5-min Rain = 0
KHE1 180239Z 18010KT 04/M03 A3009 RMK A01 T00381029  RH  062%=      5-min Rain = 0
KHE1 180240Z 18010KT 04/M03 A3009 RMK A01 T00381029  RH  062%=      5-min Rain = 0
KHE1 180241Z 18010KT 04/M03 A3009 RMK A01 T00371029  RH  062%=      5-min Rain = 0
KHE1 180242Z 18010KT 04/M03 A3009 RMK A01 T00371029  RH  062%=      5-min Rain = 0
KHE1 180243Z 19010KT 04/M03 A3009 RMK A01 T00371029  RH  062%=      5-min Rain = 0
KHE1 180244Z 19010KT 04/M03 A3009 RMK A01 T00371029  RH  062%=      5-min Rain = 0
KHE1 180245Z 19010KT 04/M03 A3009 RMK A01 T00361029  RH  062%=      5-min Rain = 0
KHE1 180246Z 19010KT 04/M03 A3009 RMK A01 T00361029  RH  063%=      5-min Rain = 0
KHE1 180247Z 19010KT 04/M03 A3009 RMK A01 T00361029  RH  063%=      5-min Rain = 0
KHE1 180248Z 19010KT 04/M03 A3008 RMK A01 T00361030  RH  062%=      5-min Rain = 0
KHE1 180249Z 19009KT 04/M03 A3008 RMK A01 T00361030  RH  062%=      5-min Rain = 0
KHE1 180250Z 19009KT 04/M03 A3008 RMK A01 T00361030  RH  062%=      5-min Rain = 0
KHE1 180251Z 18010KT 04/M03 A3008 RMK A01 T00371030  RH  061%=      5-min Rain = 0
KHE1 180252Z 18010KT 04/M03 A3008 RMK A01 T00371031  RH  061%=      5-min Rain = 0
KHE1 180253Z 18010KT 04/M03 A3008 RMK A01 T00371031  RH  061%=      5-min Rain = 0
KHE1 180254Z 18010KT 04/M03 A3008 RMK A01 T00371031  RH  061%=      5-min Rain = 0
KHE1 180255Z 18010KT 04/M03 A3008 RMK A01 T00361031  RH  062%=      5-min Rain = 0
KHE1 180256Z 18010KT 04/M03 A3008 RMK A01 T00351031  RH  062%=      5-min Rain = 0
KHE1 180257Z 18010KT 04/M03 A3008 RMK A01 T00351030  RH  063%=      5-min Rain = 0
KHE1 180258Z 18010KT 03/M03 A3008 RMK A01 T00341030  RH  063%=      5-min Rain = 0
KHE1 180259Z 18010KT 03/M03 A3008 RMK A01 T00331030  RH  063%=      5-min Rain = 0
KHE1 180300Z 18010KT 03/M03 A3008 RMK A01 T00331029  RH  064%=      5-min Rain = 0
KHE1 180301Z 19010KT 03/M03 A3008 RMK A01 T00331030  RH  064%=      5-min Rain = 0
KHE1 180302Z 19010KT 03/M03 A3008 RMK A01 T00331030  RH  063%=      5-min Rain = 0
KHE1 180303Z 19010KT 03/M03 A3008 RMK A01 T00341029  RH  063%=      5-min Rain = 0
KHE1 180304Z 19010KT 03/M03 A3008 RMK A01 T00331029  RH  064%=      5-min Rain = 0
KHE1 180305Z 19011KT 03/M03 A3008 RMK A01 T00331029  RH  064%=      5-min Rain = 0
KHE1 180306Z 19010KT 03/M03 A3008 RMK A01 T00331029  RH  063%=      5-min Rain = 0
KHE1 180307Z 19010KT 03/M03 A3008 RMK A01 T00331029  RH  063%=      5-min Rain = 0
KHE1 180308Z 19010KT 03/M03 A3008 RMK A01 T00331029  RH  064%=      5-min Rain = 0
KHE1 180309Z 19010KT 03/M03 A3008 RMK A01 T00331029  RH  064%=      5-min Rain = 0
KHE1 180310Z 19010KT 03/M03 A3008 RMK A01 T00321029  RH  065%=      5-min Rain = 0
KHE1 180311Z 19010KT 03/M03 A3008 RMK A01 T00301028  RH  065%=      5-min Rain = 0
KHE1 180312Z 19010KT 03/M03 A3008 RMK A01 T00301028  RH  066%=      5-min Rain = 0
KHE1 180313Z 19010KT 03/M03 A3008 RMK A01 T00291028  RH  066%=      5-min Rain = 0
KHE1 180314Z 19010KT 03/M03 A3008 RMK A01 T00291028  RH  066%=      5-min Rain = 0
KHE1 180315Z 19010KT 03/M03 A3008 RMK A01 T00291028  RH  066%=      5-min Rain = 0
KHE1 180316Z 19010KT 03/M03 A3008 RMK A01 T00301028  RH  066%=      5-min Rain = 0
KHE1 180317Z 19010KT 03/M03 A3008 RMK A01 T00301029  RH  065%=      5-min Rain = 0
KHE1 180318Z 19010KT 03/M03 A3008 RMK A01 T00311029  RH  065%=      5-min Rain = 0
KHE1 180319Z 19010KT 03/M03 A3008 RMK A01 T00311029  RH  064%=      5-min Rain = 0
KHE1 180320Z 19010KT 03/M03 A3008 RMK A01 T00321029  RH  064%=      5-min Rain = 0
KHE1 180321Z 19009KT 03/M03 A3008 RMK A01 T00321029  RH  064%=      5-min Rain = 0
KHE1 180322Z 19009KT 03/M03 A3008 RMK A01 T00321029  RH  064%=      5-min Rain = 0
KHE1 180323Z 19009KT 03/M03 A3008 RMK A01 T00311029  RH  064%=      5-min Rain = 0
KHE1 180324Z 19009KT 03/M03 A3008 RMK A01 T00311029  RH  065%=      5-min Rain = 0
KHE1 180325Z 19008KT 03/M03 A3008 RMK A01 T00301029  RH  065%=      5-min Rain = 0
KHE1 180326Z 19009KT 03/M03 A3008 RMK A01 T00291029  RH  066%=      5-min Rain = 0
KHE1 180327Z 19009KT 03/M03 A3008 RMK A01 T00281029  RH  066%=      5-min Rain = 0
KHE1 180328Z 19009KT 03/M03 A3008 RMK A01 T00281029  RH  066%=      5-min Rain = 0
KHE1 180329Z 19009KT 03/M03 A3008 RMK A01 T00281029  RH  066%=      5-min Rain = 0
KHE1 180330Z 19009KT 03/M03 A3008 RMK A01 T00291029  RH  066%=      5-min Rain = 0
KHE1 180331Z 19008KT 03/M03 A3008 RMK A01 T00291029  RH  066%=      5-min Rain = 0
KHE1 180332Z 19008KT 03/M03 A3008 RMK A01 T00291029  RH  066%=      5-min Rain = 0
KHE1 180333Z 19009KT 03/M03 A3008 RMK A01 T00291029  RH  066%=      5-min Rain = 0
KHE1 180334Z 19009KT 03/M03 A3007 RMK A01 T00281028  RH  066%=      5-min Rain = 0
KHE1 180335Z 19008KT 03/M03 A3007 RMK A01 T00281028  RH  067%=      5-min Rain = 0
KHE1 180336Z 19008KT 03/M03 A3007 RMK A01 T00271028  RH  067%=      5-min Rain = 0
KHE1 180337Z 19009KT 03/M03 A3007 RMK A01 T00271028  RH  067%=      5-min Rain = 0
KHE1 180338Z 19009KT 03/M03 A3007 RMK A01 T00271027  RH  067%=      5-min Rain = 0
KHE1 180339Z 19009KT 03/M03 A3007 RMK A01 T00261027  RH  068%=      5-min Rain = 0
KHE1 180340Z 19010KT 03/M03 A3007 RMK A01 T00261027  RH  068%=      5-min Rain = 0
KHE1 180341Z 19010KT 03/M03 A3007 RMK A01 T00261027  RH  068%=      5-min Rain = 0
KHE1 180342Z 19010KT 03/M03 A3007 RMK A01 T00261026  RH  069%=      5-min Rain = 0
KHE1 180343Z 19009KT 03/M03 A3007 RMK A01 T00261027  RH  068%=      5-min Rain = 0
KHE1 180344Z 19009KT 03/M03 A3007 RMK A01 T00271027  RH  068%=      5-min Rain = 0
KHE1 180345Z 19008KT 03/M03 A3007 RMK A01 T00271027  RH  068%=      5-min Rain = 0
KHE1 180346Z 20008KT 03/M03 A3007 RMK A01 T00271027  RH  068%=      5-min Rain = 0
KHE1 180347Z 20008KT 03/M03 A3007 RMK A01 T00271027  RH  068%=      5-min Rain = 0
KHE1 180348Z 20008KT 03/M03 A3007 RMK A01 T00261027  RH  068%=      5-min Rain = 0
KHE1 180349Z 20009KT 03/M03 A3007 RMK A01 T00261027  RH  068%=      5-min Rain = 0
KHE1 180350Z 19009KT 03/M03 A3007 RMK A01 T00261027  RH  068%=      5-min Rain = 0
KHE1 180351Z 19009KT 03/M03 A3007 RMK A01 T00251027  RH  068%=      5-min Rain = 0
KHE1 180352Z 19009KT 03/M03 A3007 RMK A01 T00261028  RH  068%=      5-min Rain = 0
KHE1 180353Z 19009KT 03/M03 A3007 RMK A01 T00261028  RH  068%=      5-min Rain = 0
KHE1 180354Z 19009KT 03/M03 A3007 RMK A01 T00261028  RH  068%=      5-min Rain = 0
KHE1 180355Z 19009KT 03/M03 A3007 RMK A01 T00261027  RH  068%=      5-min Rain = 0
KHE1 180356Z 19009KT 03/M03 A3007 RMK A01 T00261027  RH  068%=      5-min Rain = 0
KHE1 180357Z 19009KT 03/M03 A3007 RMK A01 T00261027  RH  068%=      5-min Rain = 0
KHE1 180358Z 19009KT 03/M03 A3007 RMK A01 T00251027  RH  068%=      5-min Rain = 0
KHE1 180359Z 19009KT 03/M03 A3007 RMK A01 T00251027  RH  068%=      5-min Rain = 0
KHE1 180400Z 19010KT 03/M03 A3007 RMK A01 T00251027  RH  069%=      5-min Rain = 0
KHE1 180401Z 19010KT 03/M03 A3007 RMK A01 T00251027  RH  069%=      5-min Rain = 0
KHE1 180402Z 19010KT 03/M03 A3007 RMK A01 T00251027  RH  069%=      5-min Rain = 0
KHE1 180403Z 19010KT 03/M03 A3007 RMK A01 T00261027  RH  068%=      5-min Rain = 0
KHE1 180404Z 19010KT 03/M03 A3006 RMK A01 T00271027  RH  068%=      5-min Rain = 0
KHE1 180405Z 19010KT 03/M03 A3006 RMK A01 T00271027  RH  068%=      5-min Rain = 0
KHE1 180406Z 19010KT 03/M03 A3006 RMK A01 T00261027  RH  068%=      5-min Rain = 0
KHE1 180407Z 19010KT 03/M03 A3006 RMK A01 T00261027  RH  068%=      5-min Rain = 0
KHE1 180408Z 19010KT 03/M03 A3006 RMK A01 T00261027  RH  068%=      5-min Rain = 0
KHE1 180409Z 19010KT 03/M03 A3006 RMK A01 T00261027  RH  068%=      5-min Rain = 0
KHE1 180410Z 19009KT 03/M03 A3006 RMK A01 T00261027  RH  068%=      5-min Rain = 0
KHE1 180411Z 19009KT 03/M03 A3006 RMK A01 T00261027  RH  068%=      5-min Rain = 0
KHE1 180412Z 19009KT 03/M03 A3006 RMK A01 T00251027  RH  069%=      5-min Rain = 0
KHE1 180413Z 19009KT 02/M03 A3006 RMK A01 T00241027  RH  069%=      5-min Rain = 0
KHE1 180414Z 19009KT 02/M03 A3006 RMK A01 T00241027  RH  069%=      5-min Rain = 0
KHE1 180415Z 19009KT 02/M03 A3006 RMK A01 T00241027  RH  069%=      5-min Rain = 0
KHE1 180416Z 20009KT 02/M03 A3006 RMK A01 T00241027  RH  069%=      5-min Rain = 0
KHE1 180417Z 19009KT 02/M03 A3006 RMK A01 T00241027  RH  069%=      5-min Rain = 0
KHE1 180418Z 19009KT 02/M03 A3006 RMK A01 T00241027  RH  069%=      5-min Rain = 0
KHE1 180419Z 19009KT 02/M03 A3006 RMK A01 T00241027  RH  069%=      5-min Rain = 0
KHE1 180420Z 19009KT 03/M03 A3006 RMK A01 T00251027  RH  068%=      5-min Rain = 0
KHE1 180421Z 19009KT 03/M03 A3006 RMK A01 T00251027  RH  068%=      5-min Rain = 0
KHE1 180422Z 19009KT 03/M03 A3006 RMK A01 T00251027  RH  068%=      5-min Rain = 0
KHE1 180423Z 19009KT 03/M03 A3005 RMK A01 T00251027  RH  068%=      5-min Rain = 0
KHE1 180424Z 19009KT 03/M03 A3005 RMK A01 T00261027  RH  068%=      5-min Rain = 0
KHE1 180425Z 19010KT 03/M03 A3005 RMK A01 T00261027  RH  068%=      5-min Rain = 0
KHE1 180426Z 19010KT 03/M03 A3005 RMK A01 T00261027  RH  068%=      5-min Rain = 0
KHE1 180427Z 19010KT 03/M03 A3005 RMK A01 T00261027  RH  068%=      5-min Rain = 0
KHE1 180428Z 19010KT 03/M03 A3005 RMK A01 T00261027  RH  068%=      5-min Rain = 0
KHE1 180429Z 19009KT 03/M03 A3005 RMK A01 T00271027  RH  068%=      5-min Rain = 0
KHE1 180430Z 19009KT 03/M03 A3006 RMK A01 T00271027  RH  068%=      5-min Rain = 0
KHE1 180431Z 20009KT 03/M03 A3006 RMK A01 T00271027  RH  068%=      5-min Rain = 0
KHE1 180432Z 20009KT 03/M03 A3006 RMK A01 T00271027  RH  068%=      5-min Rain = 0
KHE1 180433Z 20009KT 03/M03 A3006 RMK A01 T00261027  RH  068%=      5-min Rain = 0
KHE1 180434Z 20009KT 03/M03 A3006 RMK A01 T00251027  RH  068%=      5-min Rain = 0
KHE1 180435Z 20009KT 03/M03 A3006 RMK A01 T00251027  RH  069%=      5-min Rain = 0
KHE1 180436Z 20009KT 03/M03 A3006 RMK A01 T00251027  RH  069%=      5-min Rain = 0
KHE1 180437Z 20008KT 03/M03 A3005 RMK A01 T00251027  RH  069%=      5-min Rain = 0
KHE1 180438Z 20008KT 03/M03 A3005 RMK A01 T00251027  RH  069%=      5-min Rain = 0
KHE1 180439Z 20008KT 03/M03 A3005 RMK A01 T00261026  RH  069%=      5-min Rain = 0
KHE1 180440Z 20008KT 03/M03 A3005 RMK A01 T00251026  RH  069%=      5-min Rain = 0
KHE1 180441Z 20008KT 03/M03 A3005 RMK A01 T00261026  RH  069%=      5-min Rain = 0
KHE1 180442Z 20008KT 03/M03 A3005 RMK A01 T00261026  RH  069%=      5-min Rain = 0
KHE1 180443Z 20008KT 03/M03 A3005 RMK A01 T00261026  RH  069%=      5-min Rain = 0
KHE1 180444Z 19008KT 03/M03 A3005 RMK A01 T00261026  RH  069%=      5-min Rain = 0
KHE1 180445Z 19008KT 03/M03 A3005 RMK A01 T00251026  RH  069%=      5-min Rain = 0
KHE1 180446Z 19008KT 03/M03 A3005 RMK A01 T00251026  RH  069%=      5-min Rain = 0
KHE1 180447Z 19008KT 03/M03 A3005 RMK A01 T00251025  RH  070%=      5-min Rain = 0
KHE1 180448Z 19008KT 02/M03 A3005 RMK A01 T00241025  RH  070%=      5-min Rain = 0
KHE1 180449Z 19008KT 02/M03 A3005 RMK A01 T00231025  RH  071%=      5-min Rain = 0
KHE1 180450Z 19009KT 02/M03 A3005 RMK A01 T00221025  RH  071%=      5-min Rain = 0
KHE1 180451Z 19009KT 02/M03 A3005 RMK A01 T00211025  RH  071%=      5-min Rain = 0
KHE1 180452Z 19009KT 02/M03 A3005 RMK A01 T00211026  RH  071%=      5-min Rain = 0
KHE1 180453Z 19009KT 02/M03 A3005 RMK A01 T00211026  RH  071%=      5-min Rain = 0
KHE1 180454Z 19009KT 02/M03 A3005 RMK A01 T00221025  RH  071%=      5-min Rain = 0
KHE1 180455Z 19010KT 02/M03 A3005 RMK A01 T00221026  RH  071%=      5-min Rain = 0
KHE1 180456Z 20009KT 02/M03 A3005 RMK A01 T00221026  RH  071%=      5-min Rain = 0
KHE1 180457Z 20009KT 02/M03 A3005 RMK A01 T00221026  RH  071%=      5-min Rain = 0
KHE1 180458Z 20010KT 02/M03 A3005 RMK A01 T00221026  RH  071%=      5-min Rain = 0
KHE1 180459Z 20010KT 02/M03 A3005 RMK A01 T00211026  RH  071%=      5-min Rain = 0
KHE1 180500Z 20008KT 02/M03 A3005 RMK A01 T00211026  RH  071%=      5-min Rain = 0
KHE1 180501Z 20009KT 02/M03 A3005 RMK A01 T00211025  RH  071%=      5-min Rain = 0
KHE1 180502Z 20009KT 02/M03 A3005 RMK A01 T00211025  RH  072%=      5-min Rain = 0
KHE1 180503Z 20009KT 02/M03 A3005 RMK A01 T00201026  RH  072%=      5-min Rain = 0
KHE1 180504Z 19009KT 02/M03 A3005 RMK A01 T00201026  RH  072%=      5-min Rain = 0
KHE1 180505Z 19009KT 02/M03 A3005 RMK A01 T00211026  RH  071%=      5-min Rain = 0
KHE1 180506Z 19008KT 02/M03 A3005 RMK A01 T00211026  RH  071%=      5-min Rain = 0
KHE1 180507Z 19009KT 02/M03 A3005 RMK A01 T00221026  RH  071%=      5-min Rain = 0
KHE1 180508Z 19009KT 02/M03 A3004 RMK A01 T00221026  RH  071%=      5-min Rain = 0
KHE1 180509Z 19010KT 02/M03 A3004 RMK A01 T00231026  RH  070%=      5-min Rain = 0
KHE1 180510Z 18010KT 02/M03 A3004 RMK A01 T00231026  RH  070%=      5-min Rain = 0
KHE1 180511Z 19009KT 02/M03 A3004 RMK A01 T00231026  RH  070%=      5-min Rain = 0
KHE1 180512Z 19009KT 02/M03 A3004 RMK A01 T00231027  RH  070%=      5-min Rain = 0
KHE1 180513Z 18009KT 02/M03 A3004 RMK A01 T00231027  RH  070%=      5-min Rain = 0
KHE1 180514Z 19009KT 02/M03 A3004 RMK A01 T00231027  RH  070%=      5-min Rain = 0
KHE1 180515Z 19009KT 02/M03 A3004 RMK A01 T00231026  RH  070%=      5-min Rain = 0
KHE1 180516Z 19009KT 02/M03 A3004 RMK A01 T00221026  RH  070%=      5-min Rain = 0
KHE1 180517Z 19009KT 02/M03 A3004 RMK A01 T00221026  RH  070%=      5-min Rain = 0
KHE1 180518Z 19009KT 02/M03 A3004 RMK A01 T00211026  RH  071%=      5-min Rain = 0
KHE1 180519Z 19009KT 02/M03 A3004 RMK A01 T00211027  RH  071%=      5-min Rain = 0
KHE1 180520Z 19009KT 02/M03 A3004 RMK A01 T00211027  RH  071%=      5-min Rain = 0
KHE1 180521Z 19009KT 02/M03 A3004 RMK A01 T00211027  RH  070%=      5-min Rain = 0
KHE1 180522Z 19009KT 02/M03 A3004 RMK A01 T00221027  RH  070%=      5-min Rain = 0
KHE1 180523Z 18009KT 02/M03 A3003 RMK A01 T00221028  RH  070%=      5-min Rain = 0
KHE1 180524Z 18009KT 02/M03 A3003 RMK A01 T00221028  RH  069%=      5-min Rain = 0
KHE1 180525Z 18009KT 02/M03 A3003 RMK A01 T00221028  RH  069%=      5-min Rain = 0
KHE1 180526Z 18009KT 02/M03 A3003 RMK A01 T00221028  RH  069%=      5-min Rain = 0
KHE1 180527Z 18009KT 02/M03 A3003 RMK A01 T00221028  RH  069%=      5-min Rain = 0
KHE1 180528Z 18009KT 02/M03 A3003 RMK A01 T00221028  RH  069%=      5-min Rain = 0
KHE1 180529Z 18009KT 02/M03 A3003 RMK A01 T00221028  RH  069%=      5-min Rain = 0
KHE1 180530Z 18009KT 02/M03 A3003 RMK A01 T00221028  RH  069%=      5-min Rain = 0
KHE1 180531Z 18010KT 02/M03 A3003 RMK A01 T00231029  RH  069%=      5-min Rain = 0
KHE1 180532Z 18009KT 02/M03 A3003 RMK A01 T00241029  RH  068%=      5-min Rain = 0
KHE1 180533Z 18010KT 02/M03 A3003 RMK A01 T00241029  RH  068%=      5-min Rain = 0
KHE1 180534Z 18010KT 02/M03 A3003 RMK A01 T00241029  RH  068%=      5-min Rain = 0
KHE1 180535Z 18010KT 02/M03 A3003 RMK A01 T00241029  RH  068%=      5-min Rain = 0
KHE1 180536Z 18010KT 02/M03 A3003 RMK A01 T00241029  RH  068%=      5-min Rain = 0
KHE1 180537Z 18010KT 02/M03 A3003 RMK A01 T00241028  RH  068%=      5-min Rain = 0
KHE1 180538Z 18009KT 02/M03 A3003 RMK A01 T00231028  RH  069%=      5-min Rain = 0
KHE1 180539Z 18009KT 02/M03 A3003 RMK A01 T00231027  RH  070%=      5-min Rain = 0
KHE1 180540Z 18009KT 02/M03 A3003 RMK A01 T00221027  RH  070%=      5-min Rain = 0
KHE1 180541Z 18009KT 02/M03 A3003 RMK A01 T00211027  RH  070%=      5-min Rain = 0
KHE1 180542Z 18009KT 02/M03 A3003 RMK A01 T00201028  RH  071%=      5-min Rain = 0
KHE1 180543Z 18010KT 02/M03 A3003 RMK A01 T00201028  RH  071%=      5-min Rain = 0
KHE1 180544Z 18010KT 02/M03 A3003 RMK A01 T00201028  RH  071%=      5-min Rain = 0
KHE1 180545Z 18009KT 02/M03 A3003 RMK A01 T00201027  RH  071%=      5-min Rain = 0
KHE1 180546Z 18009KT 02/M03 A3003 RMK A01 T00191027  RH  071%=      5-min Rain = 0
KHE1 180547Z 18009KT 02/M03 A3003 RMK A01 T00191027  RH  072%=      5-min Rain = 0
KHE1 180548Z 18009KT 02/M03 A3003 RMK A01 T00191027  RH  072%=      5-min Rain = 0
KHE1 180549Z 18009KT 02/M03 A3003 RMK A01 T00181027  RH  072%=      5-min Rain = 0
KHE1 180550Z 18009KT 02/M03 A3002 RMK A01 T00181027  RH  072%=      5-min Rain = 0
KHE1 180551Z 18009KT 02/M03 A3002 RMK A01 T00181027  RH  072%=      5-min Rain = 0
KHE1 180552Z 18009KT 02/M03 A3002 RMK A01 T00181027  RH  072%=      5-min Rain = 0
KHE1 180553Z 18009KT 02/M03 A3002 RMK A01 T00181027  RH  072%=      5-min Rain = 0
KHE1 180554Z 18009KT 02/M03 A3002 RMK A01 T00171028  RH  072%=      5-min Rain = 0
KHE1 180555Z 18009KT 02/M03 A3002 RMK A01 T00171027  RH  072%=      5-min Rain = 0
KHE1 180556Z 18009KT 02/M03 A3002 RMK A01 T00171027  RH  072%=      5-min Rain = 0
KHE1 180557Z 18009KT 02/M03 A3002 RMK A01 T00171027  RH  072%=      5-min Rain = 0
KHE1 180558Z 18009KT 02/M03 A3002 RMK A01 T00171028  RH  072%=      5-min Rain = 0
KHE1 180559Z 18010KT 02/M03 A3002 RMK A01 T00171028  RH  072%=      5-min Rain = 0

Page generated in 0.118 seconds.